Wetterdaten: Sonntag, 25.12.2016
Datum Zeit Temp. Aussen Temp. o. S. +5cm Feuchte Auss BlattFeu 1 Luftdruck Regen Sonnenschein Regendauer Solar Windben Empfang
25.12.2016 00:00 8,2 C 7,8 C 5,6 C 88 % 15 lf 1025,1 hPa 0,0 l/m 0 min 2 min 0 W/m 33,5 km/h (5 Bft) 95,65 %
25.12.2016 00:02 8,2 C 7,8 C 5,6 C 89 % 15 lf 1025,0 hPa 0,0 l/m 0 min 0 min 0 W/m 27,2 km/h (4 Bft) 96,88 %
25.12.2016 00:06 8,2 C 7,8 C 5,6 C 89 % 15 lf 1025,1 hPa 0,0 l/m 0 min 2 min 0 W/m 29,3 km/h (5 Bft) 93,62 %
25.12.2016 00:08 8,1 C 7,8 C 5,6 C 89 % 15 lf 1025,0 hPa 0,0 l/m 0 min 2 min 0 W/m 35,6 km/h (5 Bft) 97,87 %
25.12.2016 00:10 8,1 C 7,8 C 5,6 C 89 % 15 lf 1025,0 hPa 0,0 l/m 0 min 2 min 0 W/m 25,1 km/h (4 Bft) 97,87 %
25.12.2016 00:12 8,1 C 7,8 C 5,6 C 89 % 15 lf 1025,0 hPa 0,0 l/m 0 min 2 min 0 W/m 29,3 km/h (5 Bft) 95,74 %
25.12.2016 00:14 8,1 C 7,8 C 5,6 C 89 % 15 lf 1024,9 hPa 0,0 l/m 0 min 2 min 0 W/m 29,3 km/h (5 Bft) 97,83 %
25.12.2016 00:16 8,1 C 7,8 C 5,6 C 89 % 15 lf 1025,0 hPa 0,0 l/m 0 min 2 min 0 W/m 27,2 km/h (4 Bft) 97,87 %
25.12.2016 00:18 8,2 C 7,8 C 5,6 C 89 % 15 lf 1025,0 hPa 0,0 l/m 0 min 2 min 0 W/m 23,0 km/h (4 Bft) 97,87 %
25.12.2016 00:20 8,2 C 7,8 C 5,6 C 90 % 15 lf 1025,0 hPa 0,2 l/m 0 min 2 min 0 W/m 18,8 km/h (3 Bft) 95,74 %
25.12.2016 00:22 8,1 C 7,8 C 5,6 C 90 % 15 lf 1025,1 hPa 0,0 l/m 0 min 2 min 0 W/m 25,1 km/h (4 Bft) 97,87 %
25.12.2016 00:24 8,2 C 7,8 C 5,6 C 90 % 15 lf 1025,1 hPa 0,0 l/m 0 min 2 min 0 W/m 23,0 km/h (4 Bft) 93,48 %
25.12.2016 00:26 8,1 C 7,8 C 5,6 C 90 % 15 lf 1025,0 hPa 0,0 l/m 0 min 2 min 0 W/m 20,9 km/h (4 Bft) 100,00 %
25.12.2016 00:28 8,1 C 7,8 C 5,6 C 90 % 15 lf 1025,1 hPa 0,0 l/m 0 min 2 min 0 W/m 23,0 km/h (4 Bft) 100,00 %
25.12.2016 00:30 8,1 C 7,8 C 5,6 C 90 % 15 lf 1025,1 hPa 0,0 l/m 0 min 2 min 0 W/m 25,1 km/h (4 Bft) 97,87 %
25.12.2016 00:32 8,1 C 7,8 C 5,6 C 91 % 15 lf 1025,1 hPa 0,0 l/m 0 min 2 min 0 W/m 27,2 km/h (4 Bft) 100,00 %
25.12.2016 00:34 8,1 C 7,8 C 5,6 C 91 % 15 lf 1025,0 hPa 0,0 l/m 0 min 2 min 0 W/m 23,0 km/h (4 Bft) 100,00 %
25.12.2016 00:36 8,1 C 7,8 C 5,6 C 91 % 15 lf 1025,1 hPa 0,0 l/m 0 min 2 min 0 W/m 20,9 km/h (4 Bft) 97,83 %
25.12.2016 00:38 8,1 C 7,8 C 5,6 C 91 % 15 lf 1024,9 hPa 0,0 l/m 0 min 2 min 0 W/m 16,7 km/h (3 Bft) 97,87 %
25.12.2016 00:40 8,1 C 7,2 C 5,6 C 91 % 15 lf 1024,9 hPa 0,0 l/m 0 min 2 min 0 W/m 16,7 km/h (3 Bft) 91,49 %
25.12.2016 00:42 8,1 C 7,2 C 5,6 C 91 % 15 lf 1025,0 hPa 0,0 l/m 0 min 2 min 0 W/m 23,0 km/h (4 Bft) 95,74 %
25.12.2016 00:44 8,1 C 7,2 C 5,6 C 91 % 15 lf 1025,0 hPa 0,0 l/m 0 min 2 min 0 W/m 23,0 km/h (4 Bft) 97,87 %
25.12.2016 00:46 8,0 C 7,2 C 5,6 C 91 % 15 lf 1024,9 hPa 0,0 l/m 0 min 2 min 0 W/m 25,1 km/h (4 Bft) 97,87 %
25.12.2016 00:48 8,0 C 7,2 C 5,6 C 91 % 15 lf 1024,9 hPa 0,2 l/m 0 min 2 min 0 W/m 27,2 km/h (4 Bft) 97,83 %
25.12.2016 00:50 8,0 C 7,2 C 5,6 C 92 % 15 lf 1024,9 hPa 0,0 l/m 0 min 2 min 0 W/m 14,6 km/h (3 Bft) 97,87 %
25.12.2016 00:52 8,0 C 7,2 C 5,6 C 92 % 15 lf 1024,8 hPa 0,0 l/m 0 min 2 min 0 W/m 20,9 km/h (4 Bft) 91,49 %
25.12.2016 00:54 7,9 C 7,2 C 5,6 C 92 % 15 lf 1024,9 hPa 0,0 l/m 0 min 2 min 0 W/m 23,0 km/h (4 Bft) 97,87 %
25.12.2016 00:56 7,9 C 7,2 C 5,6 C 92 % 15 lf 1024,9 hPa 0,0 l/m 0 min 2 min 0 W/m 16,7 km/h (3 Bft) 97,87 %
25.12.2016 00:58 7,9 C 7,2 C 5,6 C 92 % 15 lf 1025,0 hPa 0,0 l/m 0 min 2 min 0 W/m 23,0 km/h (4 Bft) 95,74 %
25.12.2016 01:00 7,9 C 7,2 C 5,6 C 92 % 15 lf 1024,9 hPa 0,0 l/m 0 min 2 min 0 W/m 25,1 km/h (4 Bft) 97,83 %
25.12.2016 01:02 7,9 C 7,2 C 5,6 C 92 % 15 lf 1024,9 hPa 0,0 l/m 0 min 2 min 0 W/m 25,1 km/h (4 Bft) 95,74 %
25.12.2016 01:04 7,9 C 7,2 C 5,6 C 92 % 15 lf 1024,9 hPa 0,2 l/m 0 min 2 min 0 W/m 25,1 km/h (4 Bft) 93,62 %
25.12.2016 01:06 7,8 C 7,2 C 5,6 C 92 % 15 lf 1024,9 hPa 0,0 l/m 0 min 2 min 0 W/m 33,5 km/h (5 Bft) 95,74 %
25.12.2016 01:08 7,8 C 7,2 C 5,6 C 92 % 15 lf 1025,0 hPa 0,0 l/m 0 min 2 min 0 W/m 25,1 km/h (4 Bft) 97,87 %
25.12.2016 01:10 7,8 C 7,2 C 5,6 C 93 % 15 lf 1024,9 hPa 0,0 l/m 0 min 2 min 0 W/m 27,2 km/h (4 Bft) 95,74 %
25.12.2016 01:12 7,8 C 7,2 C 5,6 C 93 % 15 lf 1025,0 hPa 0,0 l/m 0 min 2 min 0 W/m 18,8 km/h (3 Bft) 97,83 %
25.12.2016 01:14 7,8 C 7,2 C 5,6 C 93 % 15 lf 1024,9 hPa 0,0 l/m 0 min 2 min 0 W/m 25,1 km/h (4 Bft) 97,87 %
25.12.2016 01:16 7,8 C 7,2 C 5,6 C 93 % 15 lf 1024,9 hPa 0,0 l/m 0 min 2 min 0 W/m 23,0 km/h (4 Bft) 91,49 %
25.12.2016 01:18 7,8 C 7,2 C 5,6 C 93 % 15 lf 1024,9 hPa 0,2 l/m 0 min 2 min 0 W/m 23,0 km/h (4 Bft) 93,62 %
25.12.2016 01:20 7,7 C 7,2 C 5,6 C 93 % 15 lf 1024,9 hPa 0,0 l/m 0 min 2 min 0 W/m 23,0 km/h (4 Bft) 95,74 %
25.12.2016 01:22 7,7 C 7,2 C 5,6 C 93 % 15 lf 1024,9 hPa 0,0 l/m 0 min 2 min 0 W/m 18,8 km/h (3 Bft) 95,65 %
25.12.2016 01:24 7,7 C 7,2 C 5,6 C 93 % 15 lf 1024,8 hPa 0,0 l/m 0 min 2 min 0 W/m 20,9 km/h (4 Bft) 91,49 %
25.12.2016 01:26 7,7 C 7,2 C 5,6 C 93 % 15 lf 1024,8 hPa 0,0 l/m 0 min 2 min 0 W/m 27,2 km/h (4 Bft) 95,74 %
25.12.2016 01:28 7,7 C 7,2 C 5,6 C 93 % 15 lf 1024,7 hPa 0,0 l/m 0 min 2 min 0 W/m 20,9 km/h (4 Bft) 91,49 %
25.12.2016 01:30 7,7 C 7,2 C 5,6 C 94 % 15 lf 1024,8 hPa 0,0 l/m 0 min 2 min 0 W/m 33,5 km/h (5 Bft) 91,49 %
25.12.2016 01:32 7,7 C 7,2 C 5,6 C 94 % 15 lf 1024,6 hPa 0,0 l/m 0 min 2 min 0 W/m 23,0 km/h (4 Bft) 95,74 %
25.12.2016 01:34 7,7 C 7,2 C 5,6 C 94 % 15 lf 1024,6 hPa 0,0 l/m 0 min 2 min 0 W/m 23,0 km/h (4 Bft) 97,83 %
25.12.2016 01:36 7,7 C 7,2 C 5,6 C 94 % 15 lf 1024,6 hPa 0,0 l/m 0 min 2 min 0 W/m 25,1 km/h (4 Bft) 95,74 %
25.12.2016 01:38 7,6 C 7,2 C 5,6 C 94 % 15 lf 1024,6 hPa 0,0 l/m 0 min 2 min 0 W/m 29,3 km/h (5 Bft) 97,87 %
25.12.2016 01:40 7,6 C 7,2 C 5,6 C 94 % 15 lf 1024,6 hPa 0,0 l/m 0 min 2 min 0 W/m 25,1 km/h (4 Bft) 93,62 %
25.12.2016 01:42 7,6 C 7,2 C 5,6 C 94 % 15 lf 1024,6 hPa 0,0 l/m 0 min 2 min 0 W/m 23,0 km/h (4 Bft) 95,74 %
25.12.2016 01:44 7,6 C 7,2 C 5,6 C 94 % 15 lf 1024,5 hPa 0,0 l/m 0 min 0 min 0 W/m 20,9 km/h (4 Bft) 89,36 %
25.12.2016 01:46 7,6 C 7,2 C 5,6 C 94 % 15 lf 1024,5 hPa 0,0 l/m 0 min 0 min 0 W/m 20,9 km/h (4 Bft) 97,83 %
25.12.2016 01:48 7,6 C 7,2 C 5,6 C 94 % 15 lf 1024,5 hPa 0,0 l/m 0 min 0 min 0 W/m 25,1 km/h (4 Bft) 97,87 %
25.12.2016 01:50 7,6 C 7,2 C 5,6 C 94 % 15 lf 1024,4 hPa 0,0 l/m 0 min 0 min 0 W/m 25,1 km/h (4 Bft) 93,62 %
25.12.2016 01:52 7,6 C 7,2 C 5,6 C 94 % 15 lf 1024,5 hPa 0,0 l/m 0 min 0 min 0 W/m 23,0 km/h (4 Bft) 93,62 %
25.12.2016 01:54 7,6 C 7,2 C 5,6 C 94 % 15 lf 1024,4 hPa 0,0 l/m 0 min 2 min 0 W/m 20,9 km/h (4 Bft) 95,74 %
25.12.2016 01:56 7,6 C 7,2 C 5,6 C 95 % 15 lf 1024,4 hPa 0,0 l/m 0 min 0 min 0 W/m 16,7 km/h (3 Bft) 95,74 %
25.12.2016 01:58 7,6 C 7,2 C 5,6 C 95 % 15 lf 1024,5 hPa 0,0 l/m 0 min 0 min 0 W/m 25,1 km/h (4 Bft) 95,65 %
25.12.2016 02:00 7,6 C 7,2 C 5,6 C 95 % 15 lf 1024,6 hPa 0,0 l/m 0 min 0 min 0 W/m 18,8 km/h (3 Bft) 97,87 %
25.12.2016 02:02 7,6 C 7,2 C 5,6 C 95 % 15 lf 1024,6 hPa 0,0 l/m 0 min 0 min 0 W/m 18,8 km/h (3 Bft) 95,74 %
25.12.2016 02:04 7,6 C 7,2 C 5,6 C 95 % 15 lf 1024,6 hPa 0,0 l/m 0 min 0 min 0 W/m 16,7 km/h (3 Bft) 95,74 %
25.12.2016 02:06 7,6 C 7,2 C 5,6 C 95 % 15 lf 1024,6 hPa 0,0 l/m 0 min 0 min 0 W/m 23,0 km/h (4 Bft) 97,87 %
25.12.2016 02:08 7,6 C 7,2 C 5,6 C 95 % 15 lf 1024,6 hPa 0,0 l/m 0 min 0 min 0 W/m 23,0 km/h (4 Bft) 95,74 %
25.12.2016 02:10 7,6 C 7,2 C 5,6 C 95 % 15 lf 1024,6 hPa 0,0 l/m 0 min 0 min 0 W/m 23,0 km/h (4 Bft) 95,65 %
25.12.2016 02:12 7,6 C 7,2 C 5,6 C 95 % 15 lf 1024,7 hPa 0,0 l/m 0 min 0 min 0 W/m 25,1 km/h (4 Bft) 95,74 %
25.12.2016 02:14 7,6 C 7,2 C 5,6 C 95 % 15 lf 1024,7 hPa 0,0 l/m 0 min 0 min 0 W/m 25,1 km/h (4 Bft) 97,87 %
25.12.2016 02:16 7,6 C 7,2 C 5,6 C 95 % 15 lf 1024,6 hPa 0,0 l/m 0 min 0 min 0 W/m 27,2 km/h (4 Bft) 97,87 %
25.12.2016 02:18 7,6 C 7,2 C 5,6 C 95 % 15 lf 1024,6 hPa 0,0 l/m 0 min 0 min 0 W/m 23,0 km/h (4 Bft) 97,87 %
25.12.2016 02:20 7,6 C 7,2 C 5,6 C 95 % 15 lf 1024,5 hPa 0,0 l/m 0 min 0 min 0 W/m 23,0 km/h (4 Bft) 100,00 %
25.12.2016 02:22 7,6 C 7,2 C 5,6 C 95 % 15 lf 1024,6 hPa 0,0 l/m 0 min 0 min 0 W/m 31,4 km/h (5 Bft) 100,00 %
25.12.2016 02:24 7,6 C 7,2 C 5,6 C 95 % 15 lf 1024,5 hPa 0,0 l/m 0 min 0 min 0 W/m 31,4 km/h (5 Bft) 95,74 %
25.12.2016 02:26 7,6 C 7,2 C 5,6 C 95 % 15 lf 1024,5 hPa 0,0 l/m 0 min 0 min 0 W/m 27,2 km/h (4 Bft) 100,00 %
25.12.2016 02:28 7,6 C 7,2 C 5,6 C 95 % 15 lf 1024,5 hPa 0,0 l/m 0 min 0 min 0 W/m 33,5 km/h (5 Bft) 97,87 %
25.12.2016 02:30 7,6 C 7,2 C 5,6 C 95 % 15 lf 1024,5 hPa 0,0 l/m 0 min 0 min 0 W/m 25,1 km/h (4 Bft) 97,87 %
25.12.2016 02:32 7,6 C 7,2 C 5,6 C 95 % 15 lf 1024,5 hPa 0,0 l/m 0 min 0 min 0 W/m 43,9 km/h (6 Bft) 97,87 %
25.12.2016 02:34 7,7 C 7,2 C 5,6 C 95 % 15 lf 1024,4 hPa 0,0 l/m 0 min 0 min 0 W/m 27,2 km/h (4 Bft) 97,83 %
25.12.2016 02:36 7,7 C 7,2 C 5,6 C 95 % 15 lf 1024,5 hPa 0,0 l/m 0 min 0 min 0 W/m 29,3 km/h (5 Bft) 95,74 %
25.12.2016 02:38 7,7 C 7,2 C 5,6 C 95 % 15 lf 1024,5 hPa 0,0 l/m 0 min 0 min 0 W/m 27,2 km/h (4 Bft) 97,87 %
25.12.2016 02:40 7,7 C 7,2 C 5,6 C 95 % 15 lf 1024,5 hPa 0,0 l/m 0 min 0 min 0 W/m 29,3 km/h (5 Bft) 95,74 %
25.12.2016 02:42 7,7 C 7,2 C 5,6 C 95 % 15 lf 1024,3 hPa 0,0 l/m 0 min 0 min 0 W/m 39,7 km/h (6 Bft) 97,87 %
25.12.2016 02:44 7,7 C 7,2 C 5,6 C 95 % 15 lf 1024,4 hPa 0,0 l/m 0 min 0 min 0 W/m 23,0 km/h (4 Bft) 97,87 %
25.12.2016 02:46 7,7 C 7,2 C 6,1 C 95 % 15 lf 1024,4 hPa 0,0 l/m 0 min 0 min 0 W/m 25,1 km/h (4 Bft) 95,65 %
25.12.2016 02:48 7,7 C 7,2 C 6,1 C 95 % 15 lf 1024,3 hPa 0,0 l/m 0 min 0 min 0 W/m 27,2 km/h (4 Bft) 95,74 %
25.12.2016 02:50 7,7 C 7,2 C 6,1 C 95 % 15 lf 1024,2 hPa 0,2 l/m 0 min 0 min 0 W/m 31,4 km/h (5 Bft) 95,74 %
25.12.2016 02:52 7,7 C 7,2 C 6,1 C 95 % 15 lf 1024,2 hPa 0,0 l/m 0 min 0 min 0 W/m 29,3 km/h (5 Bft) 97,87 %
25.12.2016 02:54 7,7 C 7,2 C 6,1 C 95 % 15 lf 1024,2 hPa 0,0 l/m 0 min 0 min 0 W/m 35,6 km/h (5 Bft) 97,87 %
25.12.2016 02:56 7,7 C 7,2 C 6,1 C 95 % 15 lf 1024,2 hPa 0,0 l/m 0 min 0 min 0 W/m 35,6 km/h (5 Bft) 93,48 %
25.12.2016 02:58 7,8 C 7,2 C 6,1 C 94 % 15 lf 1024,2 hPa 0,0 l/m 0 min 0 min 0 W/m 33,5 km/h (5 Bft) 95,74 %
25.12.2016 03:00 7,8 C 7,2 C 6,1 C 94 % 15 lf 1024,2 hPa 0,0 l/m 0 min 0 min 0 W/m 31,4 km/h (5 Bft) 97,87 %
25.12.2016 03:02 7,8 C 7,2 C 6,1 C 95 % 15 lf 1024,1 hPa 0,0 l/m 0 min 0 min 0 W/m 31,4 km/h (5 Bft) 95,74 %
25.12.2016 03:04 7,8 C 7,2 C 6,1 C 95 % 15 lf 1024,1 hPa 0,0 l/m 0 min 0 min 0 W/m 31,4 km/h (5 Bft) 95,74 %
25.12.2016 03:06 7,8 C 7,2 C 6,1 C 94 % 14 lf 1024,0 hPa 0,0 l/m 0 min 0 min 0 W/m 31,4 km/h (5 Bft) 97,87 %
25.12.2016 03:08 7,8 C 7,2 C 6,1 C 94 % 13 lf 1024,1 hPa 0,0 l/m 0 min 0 min 0 W/m 39,7 km/h (6 Bft) 89,13 %
25.12.2016 03:10 7,8 C 7,2 C 6,1 C 94 % 13 lf 1024,1 hPa 0,0 l/m 0 min 0 min 0 W/m 25,1 km/h (4 Bft) 95,74 %
25.12.2016 03:12 7,8 C 7,2 C 6,1 C 94 % 12 lf 1024,1 hPa 0,0 l/m 0 min 0 min 0 W/m 27,2 km/h (4 Bft) 97,87 %
25.12.2016 03:14 7,8 C 7,2 C 6,1 C 94 % 10 lf 1024,0 hPa 0,0 l/m 0 min 0 min 0 W/m 43,9 km/h (6 Bft) 95,74 %
25.12.2016 03:16 7,8 C 7,8 C 6,1 C 94 % 8 lf 1024,1 hPa 0,0 l/m 0 min 0 min 0 W/m 41,8 km/h (6 Bft) 97,87 %
25.12.2016 03:18 7,9 C 7,8 C 6,1 C 94 % 6 lf 1024,0 hPa 0,0 l/m 0 min 0 min 0 W/m 35,6 km/h (5 Bft) 95,74 %
25.12.2016 03:20 7,9 C 7,8 C 6,1 C 94 % 5 lf 1024,1 hPa 0,0 l/m 0 min 0 min 0 W/m 27,2 km/h (4 Bft) 97,83 %
25.12.2016 03:22 7,9 C 7,2 C 6,1 C 94 % 4 lf 1024,1 hPa 0,0 l/m 0 min 0 min 0 W/m 20,9 km/h (4 Bft) 97,87 %
25.12.2016 03:24 7,9 C 7,2 C 6,1 C 94 % 3 lf 1024,1 hPa 0,0 l/m 0 min 0 min 0 W/m 29,3 km/h (5 Bft) 95,74 %
25.12.2016 03:26 7,9 C 7,2 C 6,1 C 94 % 3 lf 1024,1 hPa 0,0 l/m 0 min 0 min 0 W/m 33,5 km/h (5 Bft) 91,49 %
25.12.2016 03:28 7,9 C 7,8 C 6,1 C 94 % 2 lf 1024,3 hPa 0,0 l/m 0 min 2 min 0 W/m 35,6 km/h (5 Bft) 95,74 %
25.12.2016 03:30 7,9 C 7,2 C 6,1 C 93 % 1 lf 1024,1 hPa 0,0 l/m 0 min 0 min 0 W/m 29,3 km/h (5 Bft) 95,74 %
25.12.2016 03:32 7,9 C 7,2 C 6,1 C 94 % 1 lf 1024,1 hPa 0,0 l/m 0 min 0 min 0 W/m 29,3 km/h (5 Bft) 93,48 %
25.12.2016 03:34 7,9 C 7,8 C 6,1 C 94 % 1 lf 1024,0 hPa 0,0 l/m 0 min 0 min 0 W/m 31,4 km/h (5 Bft) 93,62 %
25.12.2016 03:36 7,9 C 7,8 C 6,1 C 94 % 1 lf 1024,0 hPa 0,0 l/m 0 min 0 min 0 W/m 27,2 km/h (4 Bft) 95,74 %
25.12.2016 03:38 7,9 C 7,8 C 6,1 C 93 % 1 lf 1024,0 hPa 0,0 l/m 0 min 0 min 0 W/m 33,5 km/h (5 Bft) 97,87 %
25.12.2016 03:40 7,9 C 7,8 C 6,1 C 93 % 1 lf 1024,0 hPa 0,0 l/m 0 min 2 min 0 W/m 29,3 km/h (5 Bft) 89,36 %
25.12.2016 03:42 7,9 C 7,8 C 6,1 C 93 % 1 lf 1023,9 hPa 0,0 l/m 0 min 0 min 0 W/m 33,5 km/h (5 Bft) 95,74 %
25.12.2016 03:44 7,9 C 7,8 C 6,1 C 93 % 0 lf 1023,9 hPa 0,0 l/m 0 min 0 min 0 W/m 33,5 km/h (5 Bft) 93,48 %
25.12.2016 03:46 8,0 C 7,8 C 6,1 C 93 % 0 lf 1023,9 hPa 0,0 l/m 0 min 0 min 0 W/m 33,5 km/h (5 Bft) 93,62 %
25.12.2016 03:48 8,0 C 7,8 C 6,1 C 93 % 0 lf 1023,9 hPa 0,0 l/m 0 min 2 min 0 W/m 33,5 km/h (5 Bft) 93,62 %
25.12.2016 03:50 8,0 C 7,8 C 6,1 C 93 % 0 lf 1023,9 hPa 0,0 l/m 0 min 0 min 0 W/m 29,3 km/h (5 Bft) 91,49 %
25.12.2016 03:52 8,0 C 7,8 C 6,1 C 93 % 0 lf 1024,0 hPa 0,0 l/m 0 min 0 min 0 W/m 27,2 km/h (4 Bft) 89,36 %
25.12.2016 03:54 8,1 C 7,8 C 6,1 C 93 % 0 lf 1024,0 hPa 0,0 l/m 0 min 0 min 0 W/m 31,4 km/h (5 Bft) 93,48 %
25.12.2016 03:56 8,1 C 7,8 C 6,1 C 93 % 0 lf 1024,2 hPa 0,0 l/m 0 min 0 min 0 W/m 25,1 km/h (4 Bft) 93,62 %
25.12.2016 03:58 8,1 C 7,8 C 6,1 C 93 % 0 lf 1024,4 hPa 0,0 l/m 0 min 0 min 0 W/m 27,2 km/h (4 Bft) 91,49 %
25.12.2016 04:00 8,1 C 7,8 C 6,1 C 93 % 0 lf 1024,4 hPa 0,0 l/m 0 min 0 min 0 W/m 25,1 km/h (4 Bft) 91,49 %
25.12.2016 04:05 8,1 C 7,8 C 6,1 C 93 % 0 lf 1024,1 hPa 0,0 l/m 0 min 0 min 0 W/m 29,3 km/h (5 Bft) 93,75 %
25.12.2016 04:06 8,1 C 7,8 C 6,1 C 93 % 0 lf 1024,1 hPa 0,0 l/m 0 min 0 min 0 W/m 33,5 km/h (5 Bft) 90,91 %
25.12.2016 04:08 8,1 C 7,8 C 6,1 C 93 % 0 lf 1024,0 hPa 0,0 l/m 0 min 0 min 0 W/m 29,3 km/h (5 Bft) 93,62 %
25.12.2016 04:10 8,1 C 7,8 C 6,1 C 93 % 0 lf 1024,0 hPa 0,0 l/m 0 min 0 min 0 W/m 29,3 km/h (5 Bft) 95,74 %
25.12.2016 04:12 8,1 C 7,8 C 6,1 C 93 % 0 lf 1024,0 hPa 0,0 l/m 0 min 0 min 0 W/m 33,5 km/h (5 Bft) 97,83 %
25.12.2016 04:14 8,1 C 7,8 C 6,1 C 93 % 0 lf 1023,8 hPa 0,0 l/m 0 min 2 min 0 W/m 31,4 km/h (5 Bft) 95,74 %
25.12.2016 04:16 8,1 C 7,8 C 6,1 C 93 % 0 lf 1023,9 hPa 0,0 l/m 0 min 0 min 0 W/m 39,7 km/h (6 Bft) 95,74 %
25.12.2016 04:18 8,2 C 7,8 C 6,1 C 93 % 0 lf 1023,9 hPa 0,0 l/m 0 min 0 min 0 W/m 27,2 km/h (4 Bft) 95,65 %
25.12.2016 04:20 8,2 C 7,8 C 6,1 C 92 % 0 lf 1023,6 hPa 0,0 l/m 0 min 0 min 0 W/m 27,2 km/h (4 Bft) 93,62 %
25.12.2016 04:22 8,2 C 7,8 C 6,1 C 92 % 0 lf 1023,6 hPa 0,0 l/m 0 min 0 min 0 W/m 29,3 km/h (5 Bft) 95,74 %
25.12.2016 04:24 8,2 C 7,8 C 6,1 C 92 % 0 lf 1023,5 hPa 0,0 l/m 0 min 0 min 0 W/m 29,3 km/h (5 Bft) 95,74 %
25.12.2016 04:26 8,1 C 7,8 C 6,1 C 92 % 0 lf 1023,3 hPa 0,0 l/m 0 min 0 min 0 W/m 29,3 km/h (5 Bft) 95,74 %
25.12.2016 04:28 8,1 C 7,8 C 5,6 C 92 % 0 lf 1023,3 hPa 0,0 l/m 0 min 0 min 0 W/m 27,2 km/h (4 Bft) 97,87 %
25.12.2016 04:30 8,1 C 7,2 C 5,6 C 92 % 0 lf 1023,3 hPa 0,0 l/m 0 min 0 min 0 W/m 29,3 km/h (5 Bft) 97,83 %
25.12.2016 04:32 8,1 C 7,2 C 5,6 C 92 % 0 lf 1023,3 hPa 0,0 l/m 0 min 0 min 0 W/m 31,4 km/h (5 Bft) 93,62 %
25.12.2016 04:34 8,1 C 7,2 C 5,6 C 92 % 0 lf 1023,3 hPa 0,0 l/m 0 min 0 min 0 W/m 29,3 km/h (5 Bft) 100,00 %
25.12.2016 04:36 8,1 C 7,2 C 5,6 C 92 % 0 lf 1023,3 hPa 0,0 l/m 0 min 0 min 0 W/m 33,5 km/h (5 Bft) 100,00 %
25.12.2016 04:38 8,1 C 7,8 C 5,6 C 92 % 0 lf 1023,3 hPa 0,0 l/m 0 min 0 min 0 W/m 35,6 km/h (5 Bft) 100,00 %
25.12.2016 04:40 8,1 C 7,2 C 5,6 C 92 % 0 lf 1023,3 hPa 0,0 l/m 0 min 0 min 0 W/m 33,5 km/h (5 Bft) 100,00 %
25.12.2016 04:42 8,1 C 7,2 C 5,6 C 92 % 0 lf 1023,3 hPa 0,0 l/m 0 min 0 min 0 W/m 31,4 km/h (5 Bft) 97,83 %
25.12.2016 04:44 8,0 C 7,2 C 5,6 C 92 % 0 lf 1023,2 hPa 0,0 l/m 0 min 0 min 0 W/m 35,6 km/h (5 Bft) 97,87 %
25.12.2016 04:46 8,0 C 7,2 C 5,6 C 92 % 0 lf 1023,2 hPa 0,0 l/m 0 min 0 min 0 W/m 27,2 km/h (4 Bft) 97,87 %
25.12.2016 04:48 8,0 C 7,2 C 5,6 C 92 % 0 lf 1023,3 hPa 0,0 l/m 0 min 0 min 0 W/m 29,3 km/h (5 Bft) 100,00 %
25.12.2016 04:50 7,9 C 7,2 C 5,6 C 92 % 0 lf 1023,4 hPa 0,0 l/m 0 min 0 min 0 W/m 31,4 km/h (5 Bft) 95,74 %
25.12.2016 04:52 7,9 C 7,2 C 5,6 C 92 % 0 lf 1023,4 hPa 0,0 l/m 0 min 0 min 0 W/m 29,3 km/h (5 Bft) 100,00 %
25.12.2016 04:54 8,0 C 7,2 C 5,6 C 92 % 0 lf 1023,4 hPa 0,0 l/m 0 min 0 min 0 W/m 27,2 km/h (4 Bft) 100,00 %
25.12.2016 04:56 8,0 C 7,2 C 5,6 C 92 % 0 lf 1023,5 hPa 0,0 l/m 0 min 0 min 0 W/m 33,5 km/h (5 Bft) 95,74 %
25.12.2016 04:58 8,0 C 7,8 C 6,1 C 92 % 0 lf 1023,4 hPa 0,0 l/m 0 min 0 min 0 W/m 31,4 km/h (5 Bft) 97,87 %
25.12.2016 05:00 8,0 C 7,8 C 6,1 C 92 % 0 lf 1023,5 hPa 0,0 l/m 0 min 0 min 0 W/m 29,3 km/h (5 Bft) 97,87 %
25.12.2016 05:02 8,0 C 7,8 C 6,1 C 92 % 0 lf 1023,5 hPa 0,0 l/m 0 min 0 min 0 W/m 23,0 km/h (4 Bft) 100,00 %
25.12.2016 05:04 8,0 C 7,8 C 6,1 C 92 % 0 lf 1023,3 hPa 0,0 l/m 0 min 0 min 0 W/m 23,0 km/h (4 Bft) 100,00 %
25.12.2016 05:06 8,0 C 7,8 C 6,1 C 92 % 0 lf 1023,2 hPa 0,0 l/m 0 min 0 min 0 W/m 25,1 km/h (4 Bft) 100,00 %
25.12.2016 05:08 8,0 C 7,8 C 6,1 C 92 % 0 lf 1023,1 hPa 0,0 l/m 0 min 0 min 0 W/m 27,2 km/h (4 Bft) 97,87 %
25.12.2016 05:10 8,0 C 7,8 C 6,1 C 92 % 0 lf 1023,2 hPa 0,0 l/m 0 min 0 min 0 W/m 29,3 km/h (5 Bft) 100,00 %
25.12.2016 05:12 8,0 C 7,8 C 6,1 C 92 % 0 lf 1023,1 hPa 0,0 l/m 0 min 0 min 0 W/m 25,1 km/h (4 Bft) 100,00 %
25.12.2016 05:14 8,0 C 7,8 C 6,1 C 92 % 0 lf 1023,1 hPa 0,0 l/m 0 min 0 min 0 W/m 25,1 km/h (4 Bft) 95,74 %
25.12.2016 05:16 8,0 C 7,8 C 6,1 C 92 % 0 lf 1023,2 hPa 0,0 l/m 0 min 0 min 0 W/m 31,4 km/h (5 Bft) 97,83 %
25.12.2016 05:18 8,0 C 7,8 C 6,1 C 92 % 0 lf 1023,2 hPa 0,0 l/m 0 min 0 min 0 W/m 31,4 km/h (5 Bft) 93,62 %
25.12.2016 05:20 8,0 C 7,8 C 6,1 C 92 % 0 lf 1023,2 hPa 0,0 l/m 0 min 0 min 0 W/m 29,3 km/h (5 Bft) 97,87 %
25.12.2016 05:22 8,1 C 7,8 C 6,1 C 92 % 0 lf 1023,2 hPa 0,0 l/m 0 min 0 min 0 W/m 27,2 km/h (4 Bft) 97,87 %
25.12.2016 05:24 8,1 C 7,8 C 6,1 C 92 % 0 lf 1023,2 hPa 0,0 l/m 0 min 0 min 0 W/m 31,4 km/h (5 Bft) 95,74 %
25.12.2016 05:26 8,1 C 7,8 C 6,1 C 92 % 0 lf 1023,1 hPa 0,0 l/m 0 min 0 min 0 W/m 29,3 km/h (5 Bft) 97,87 %
25.12.2016 05:28 8,2 C 7,8 C 6,1 C 92 % 0 lf 1023,2 hPa 0,0 l/m 0 min 0 min 0 W/m 35,6 km/h (5 Bft) 97,83 %
25.12.2016 05:30 8,2 C 7,8 C 6,7 C 92 % 0 lf 1023,3 hPa 0,0 l/m 0 min 0 min 0 W/m 31,4 km/h (5 Bft) 95,74 %
25.12.2016 05:32 8,2 C 7,8 C 6,7 C 92 % 0 lf 1023,4 hPa 0,0 l/m 0 min 0 min 0 W/m 25,1 km/h (4 Bft) 100,00 %
25.12.2016 05:34 8,2 C 7,8 C 6,7 C 92 % 0 lf 1023,1 hPa 0,0 l/m 0 min 0 min 0 W/m 33,5 km/h (5 Bft) 97,87 %
25.12.2016 05:36 8,3 C 7,8 C 6,1 C 92 % 12 lf 1023,0 hPa 0,0 l/m 0 min 2 min 0 W/m 31,4 km/h (5 Bft) 93,62 %
25.12.2016 05:38 8,3 C 7,8 C 6,1 C 92 % 12 lf 1023,0 hPa 0,0 l/m 0 min 2 min 0 W/m 25,1 km/h (4 Bft) 97,83 %
25.12.2016 05:40 8,3 C 7,8 C 6,1 C 92 % 9 lf 1022,9 hPa 0,0 l/m 0 min 2 min 0 W/m 33,5 km/h (5 Bft) 97,87 %
25.12.2016 05:42 8,3 C 7,8 C 6,1 C 92 % 4 lf 1023,3 hPa 0,0 l/m 0 min 0 min 0 W/m 35,6 km/h (5 Bft) 97,87 %
25.12.2016 05:44 8,3 C 7,8 C 6,1 C 92 % 3 lf 1023,2 hPa 0,0 l/m 0 min 0 min 0 W/m 27,2 km/h (4 Bft) 97,87 %
25.12.2016 05:46 8,3 C 7,8 C 6,1 C 92 % 3 lf 1023,1 hPa 0,0 l/m 0 min 0 min 0 W/m 25,1 km/h (4 Bft) 95,74 %
25.12.2016 05:48 8,3 C 7,8 C 6,1 C 92 % 3 lf 1023,0 hPa 0,0 l/m 0 min 2 min 0 W/m 23,0 km/h (4 Bft) 97,87 %
25.12.2016 05:50 8,3 C 7,8 C 6,1 C 92 % 3 lf 1023,1 hPa 0,0 l/m 0 min 2 min 0 W/m 29,3 km/h (5 Bft) 97,83 %
25.12.2016 05:52 8,3 C 7,8 C 6,1 C 92 % 3 lf 1023,2 hPa 0,0 l/m 0 min 2 min 0 W/m 29,3 km/h (5 Bft) 100,00 %
25.12.2016 05:54 8,3 C 7,8 C 6,1 C 92 % 1 lf 1023,2 hPa 0,0 l/m 0 min 0 min 0 W/m 35,6 km/h (5 Bft) 100,00 %
25.12.2016 05:56 8,3 C 7,8 C 6,1 C 92 % 4 lf 1023,0 hPa 0,0 l/m 0 min 2 min 0 W/m 31,4 km/h (5 Bft) 97,87 %
25.12.2016 05:58 8,3 C 7,8 C 6,1 C 92 % 15 lf 1022,8 hPa 0,0 l/m 0 min 2 min 0 W/m 25,1 km/h (4 Bft) 95,74 %
25.12.2016 06:00 8,3 C 7,8 C 6,1 C 92 % 15 lf 1022,8 hPa 0,0 l/m 0 min 2 min 0 W/m 31,4 km/h (5 Bft) 97,87 %
25.12.2016 06:02 8,3 C 7,8 C 6,1 C 92 % 15 lf 1022,9 hPa 0,0 l/m 0 min 2 min 0 W/m 31,4 km/h (5 Bft) 95,65 %
25.12.2016 06:06 8,3 C 7,8 C 6,1 C 92 % 15 lf 1022,8 hPa 0,0 l/m 0 min 2 min 0 W/m 27,2 km/h (4 Bft) 100,00 %
25.12.2016 06:08 8,3 C 7,8 C 6,1 C 92 % 15 lf 1022,7 hPa 0,0 l/m 0 min 2 min 0 W/m 35,6 km/h (5 Bft) 97,87 %
25.12.2016 06:10 8,3 C 7,8 C 6,1 C 92 % 15 lf 1022,7 hPa 0,0 l/m 0 min 2 min 0 W/m 27,2 km/h (4 Bft) 95,74 %
25.12.2016 06:12 8,3 C 7,8 C 6,1 C 92 % 15 lf 1022,8 hPa 0,0 l/m 0 min 2 min 0 W/m 27,2 km/h (4 Bft) 97,87 %
25.12.2016 06:14 8,3 C 7,8 C 6,1 C 92 % 15 lf 1022,7 hPa 0,0 l/m 0 min 2 min 0 W/m 39,7 km/h (6 Bft) 95,65 %
25.12.2016 06:16 8,3 C 7,8 C 6,1 C 92 % 15 lf 1022,7 hPa 0,0 l/m 0 min 2 min 0 W/m 35,6 km/h (5 Bft) 97,87 %
25.12.2016 06:18 8,3 C 7,8 C 6,1 C 92 % 15 lf 1022,7 hPa 0,0 l/m 0 min 2 min 0 W/m 29,3 km/h (5 Bft) 95,74 %
25.12.2016 06:20 8,3 C 7,8 C 6,1 C 92 % 15 lf 1022,8 hPa 0,0 l/m 0 min 2 min 0 W/m 31,4 km/h (5 Bft) 93,62 %
25.12.2016 06:22 8,3 C 7,8 C 6,1 C 93 % 15 lf 1022,9 hPa 0,0 l/m 0 min 2 min 0 W/m 33,5 km/h (5 Bft) 97,87 %
25.12.2016 06:24 8,3 C 7,8 C 6,1 C 93 % 15 lf 1022,9 hPa 0,0 l/m 0 min 2 min 0 W/m 31,4 km/h (5 Bft) 95,74 %
25.12.2016 06:26 8,3 C 7,8 C 6,1 C 93 % 15 lf 1022,9 hPa 0,0 l/m 0 min 2 min 0 W/m 20,9 km/h (4 Bft) 95,65 %
25.12.2016 06:28 8,3 C 7,8 C 6,1 C 93 % 15 lf 1022,8 hPa 0,0 l/m 0 min 2 min 0 W/m 33,5 km/h (5 Bft) 93,62 %
25.12.2016 06:30 8,3 C 7,8 C 6,1 C 93 % 15 lf 1022,7 hPa 0,0 l/m 0 min 2 min 0 W/m 29,3 km/h (5 Bft) 93,62 %
25.12.2016 06:32 8,3 C 7,8 C 6,1 C 93 % 15 lf 1022,7 hPa 0,0 l/m 0 min 2 min 0 W/m 31,4 km/h (5 Bft) 93,62 %
25.12.2016 06:34 8,3 C 7,8 C 6,1 C 93 % 15 lf 1022,7 hPa 0,0 l/m 0 min 2 min 0 W/m 29,3 km/h (5 Bft) 97,87 %
25.12.2016 06:36 8,3 C 7,8 C 6,1 C 93 % 15 lf 1022,6 hPa 0,0 l/m 0 min 2 min 0 W/m 35,6 km/h (5 Bft) 97,87 %
25.12.2016 06:38 8,3 C 7,8 C 6,1 C 93 % 15 lf 1022,6 hPa 0,2 l/m 0 min 2 min 0 W/m 29,3 km/h (5 Bft) 100,00 %
25.12.2016 06:40 8,3 C 7,8 C 6,1 C 93 % 15 lf 1022,5 hPa 0,0 l/m 0 min 0 min 0 W/m 33,5 km/h (5 Bft) 93,62 %
25.12.2016 06:42 8,3 C 7,8 C 6,1 C 93 % 15 lf 1022,6 hPa 0,0 l/m 0 min 2 min 0 W/m 27,2 km/h (4 Bft) 95,74 %
25.12.2016 06:44 8,3 C 7,8 C 6,1 C 93 % 15 lf 1022,6 hPa 0,0 l/m 0 min 2 min 0 W/m 31,4 km/h (5 Bft) 91,49 %
25.12.2016 06:46 8,3 C 7,8 C 6,7 C 93 % 15 lf 1022,7 hPa 0,0 l/m 0 min 2 min 0 W/m 48,1 km/h (6 Bft) 93,62 %
25.12.2016 06:48 8,3 C 7,8 C 6,7 C 93 % 15 lf 1022,6 hPa 0,0 l/m 0 min 2 min 0 W/m 27,2 km/h (4 Bft) 87,23 %
25.12.2016 06:50 8,3 C 7,8 C 6,7 C 93 % 15 lf 1022,7 hPa 0,0 l/m 0 min 0 min 0 W/m 27,2 km/h (4 Bft) 93,48 %
25.12.2016 06:52 8,3 C 7,8 C 6,7 C 94 % 15 lf 1022,8 hPa 0,0 l/m 0 min 2 min 0 W/m 25,1 km/h (4 Bft) 91,49 %
25.12.2016 06:54 8,3 C 7,8 C 6,7 C 94 % 15 lf 1022,7 hPa 0,0 l/m 0 min 0 min 0 W/m 29,3 km/h (5 Bft) 91,49 %
25.12.2016 06:56 8,4 C 8,3 C 6,7 C 94 % 15 lf 1022,7 hPa 0,0 l/m 0 min 2 min 0 W/m 39,7 km/h (6 Bft) 93,62 %
25.12.2016 06:58 8,4 C 8,3 C 6,7 C 94 % 15 lf 1022,7 hPa 0,0 l/m 0 min 2 min 0 W/m 33,5 km/h (5 Bft) 89,36 %
25.12.2016 07:00 8,4 C 8,3 C 6,7 C 94 % 15 lf 1022,8 hPa 0,0 l/m 0 min 2 min 0 W/m 25,1 km/h (4 Bft) 95,65 %
25.12.2016 07:02 8,4 C 8,3 C 6,7 C 94 % 15 lf 1022,8 hPa 0,0 l/m 0 min 0 min 0 W/m 33,5 km/h (5 Bft) 85,11 %
25.12.2016 07:04 8,4 C 8,3 C 6,7 C 94 % 15 lf 1022,8 hPa 0,0 l/m 0 min 0 min 0 W/m 37,7 km/h (5 Bft) 93,62 %
25.12.2016 07:06 8,4 C 8,3 C 6,7 C 94 % 15 lf 1022,7 hPa 0,0 l/m 0 min 0 min 0 W/m 27,2 km/h (4 Bft) 93,62 %
25.12.2016 07:08 8,4 C 8,3 C 6,7 C 94 % 15 lf 1022,8 hPa 0,0 l/m 0 min 2 min 0 W/m 33,5 km/h (5 Bft) 93,62 %
25.12.2016 07:10 8,4 C 8,3 C 6,7 C 94 % 15 lf 1022,7 hPa 0,0 l/m 0 min 2 min 0 W/m 31,4 km/h (5 Bft) 95,74 %
25.12.2016 07:12 8,4 C 8,3 C 6,7 C 94 % 14 lf 1022,8 hPa 0,0 l/m 0 min 2 min 0 W/m 35,6 km/h (5 Bft) 93,48 %
25.12.2016 07:14 8,4 C 8,3 C 6,7 C 93 % 12 lf 1022,6 hPa 0,0 l/m 0 min 0 min 0 W/m 48,1 km/h (6 Bft) 93,62 %
25.12.2016 07:16 8,5 C 8,9 C 6,7 C 93 % 9 lf 1022,6 hPa 0,0 l/m 0 min 2 min 0 W/m 33,5 km/h (5 Bft) 91,49 %
25.12.2016 07:18 8,5 C 8,9 C 6,7 C 93 % 6 lf 1022,7 hPa 0,0 l/m 0 min 0 min 0 W/m 27,2 km/h (4 Bft) 89,36 %
25.12.2016 07:20 8,5 C 8,9 C 6,7 C 93 % 4 lf 1022,7 hPa 0,0 l/m 0 min 2 min 0 W/m 31,4 km/h (5 Bft) 89,36 %
25.12.2016 07:22 8,5 C 8,9 C 6,7 C 93 % 2 lf 1022,7 hPa 0,0 l/m 0 min 0 min 0 W/m 37,7 km/h (5 Bft) 93,62 %
25.12.2016 07:24 8,5 C 8,9 C 6,7 C 93 % 1 lf 1022,6 hPa 0,0 l/m 0 min 2 min 0 W/m 31,4 km/h (5 Bft) 93,48 %
25.12.2016 07:26 8,6 C 8,9 C 6,7 C 93 % 0 lf 1022,7 hPa 0,0 l/m 0 min 0 min 0 W/m 27,2 km/h (4 Bft) 93,62 %
25.12.2016 07:28 8,6 C 8,9 C 6,7 C 93 % 0 lf 1022,7 hPa 0,0 l/m 0 min 2 min 0 W/m 39,7 km/h (6 Bft) 93,62 %
25.12.2016 07:30 8,6 C 8,9 C 6,7 C 93 % 0 lf 1022,6 hPa 0,0 l/m 0 min 2 min 0 W/m 39,7 km/h (6 Bft) 93,62 %
25.12.2016 07:32 8,6 C 8,9 C 6,7 C 93 % 2 lf 1022,6 hPa 0,0 l/m 0 min 2 min 0 W/m 41,8 km/h (6 Bft) 93,62 %
25.12.2016 07:34 8,6 C 8,9 C 6,7 C 93 % 11 lf 1022,5 hPa 0,0 l/m 0 min 2 min 0 W/m 31,4 km/h (5 Bft) 91,49 %
25.12.2016 07:36 8,6 C 8,9 C 6,7 C 93 % 11 lf 1022,4 hPa 0,0 l/m 0 min 2 min 0 W/m 37,7 km/h (5 Bft) 89,13 %
25.12.2016 07:38 8,6 C 8,9 C 6,7 C 93 % 9 lf 1022,6 hPa 0,0 l/m 0 min 2 min 0 W/m 39,7 km/h (6 Bft) 93,62 %
25.12.2016 07:40 8,6 C 8,9 C 6,7 C 93 % 6 lf 1022,6 hPa 0,0 l/m 0 min 0 min 0 W/m 33,5 km/h (5 Bft) 93,62 %
25.12.2016 07:42 8,7 C 8,9 C 6,7 C 93 % 4 lf 1022,7 hPa 0,0 l/m 0 min 0 min 0 W/m 29,3 km/h (5 Bft) 97,87 %
25.12.2016 07:44 8,7 C 8,9 C 6,7 C 93 % 5 lf 1022,7 hPa 0,0 l/m 0 min 2 min 0 W/m 33,5 km/h (5 Bft) 95,74 %
25.12.2016 07:46 8,7 C 8,9 C 6,7 C 93 % 6 lf 1022,7 hPa 0,0 l/m 0 min 2 min 0 W/m 29,3 km/h (5 Bft) 97,87 %
25.12.2016 07:48 8,7 C 8,9 C 6,7 C 93 % 4 lf 1022,7 hPa 0,0 l/m 0 min 2 min 0 W/m 27,2 km/h (4 Bft) 95,65 %
25.12.2016 07:50 8,7 C 8,9 C 6,7 C 93 % 3 lf 1022,7 hPa 0,0 l/m 0 min 2 min 0 W/m 29,3 km/h (5 Bft) 95,74 %
25.12.2016 07:52 8,7 C 8,9 C 6,7 C 93 % 3 lf 1022,8 hPa 0,0 l/m 0 min 0 min 0 W/m 35,6 km/h (5 Bft) 97,87 %
25.12.2016 07:54 8,7 C 8,9 C 6,7 C 93 % 2 lf 1022,8 hPa 0,0 l/m 0 min 2 min 0 W/m 31,4 km/h (5 Bft) 100,00 %
25.12.2016 07:56 8,7 C 8,9 C 6,7 C 93 % 1 lf 1022,8 hPa 0,0 l/m 0 min 0 min 0 W/m 31,4 km/h (5 Bft) 100,00 %
25.12.2016 07:58 8,7 C 8,9 C 6,7 C 93 % 0 lf 1022,8 hPa 0,0 l/m 0 min 0 min 0 W/m 31,4 km/h (5 Bft) 93,62 %
25.12.2016 08:00 8,7 C 8,9 C 6,7 C 93 % 1 lf 1022,7 hPa 0,0 l/m 0 min 0 min 0 W/m 41,8 km/h (6 Bft) 97,83 %
25.12.2016 08:02 8,7 C 8,9 C 6,7 C 93 % 0 lf 1022,7 hPa 0,0 l/m 0 min 2 min 0 W/m 41,8 km/h (6 Bft) 95,74 %
25.12.2016 08:04 8,7 C 8,9 C 6,7 C 93 % 0 lf 1022,8 hPa 0,0 l/m 0 min 0 min 0 W/m 37,7 km/h (5 Bft) 100,00 %
25.12.2016 08:06 8,7 C 8,9 C 6,7 C 93 % 0 lf 1022,7 hPa 0,0 l/m 0 min 0 min 0 W/m 27,2 km/h (4 Bft) 95,74 %
25.12.2016 08:08 8,7 C 8,9 C 6,7 C 93 % 0 lf 1022,8 hPa 0,0 l/m 0 min 0 min 0 W/m 31,4 km/h (5 Bft) 95,74 %
25.12.2016 08:10 8,7 C 8,9 C 6,7 C 93 % 0 lf 1022,8 hPa 0,0 l/m 0 min 0 min 0 W/m 31,4 km/h (5 Bft) 100,00 %
25.12.2016 08:12 8,7 C 8,9 C 6,7 C 93 % 0 lf 1022,8 hPa 0,0 l/m 0 min 0 min 0 W/m 37,7 km/h (5 Bft) 97,87 %
25.12.2016 08:14 8,7 C 8,9 C 6,7 C 93 % 1 lf 1022,7 hPa 0,0 l/m 0 min 2 min 0 W/m 41,8 km/h (6 Bft) 100,00 %
25.12.2016 08:16 8,7 C 8,9 C 6,7 C 93 % 0 lf 1022,7 hPa 0,0 l/m 0 min 2 min 0 W/m 35,6 km/h (5 Bft) 100,00 %
25.12.2016 08:18 8,7 C 8,9 C 6,7 C 93 % 0 lf 1022,6 hPa 0,0 l/m 0 min 0 min 0 W/m 31,4 km/h (5 Bft) 97,87 %
25.12.2016 08:20 8,7 C 8,9 C 6,7 C 93 % 0 lf 1022,7 hPa 0,0 l/m 0 min 0 min 0 W/m 27,2 km/h (4 Bft) 100,00 %
25.12.2016 08:22 8,7 C 8,9 C 6,7 C 93 % 0 lf 1022,7 hPa 0,0 l/m 0 min 0 min 0 W/m 35,6 km/h (5 Bft) 97,83 %
25.12.2016 08:24 8,7 C 8,9 C 6,7 C 93 % 0 lf 1022,6 hPa 0,0 l/m 0 min 0 min 0 W/m 27,2 km/h (4 Bft) 100,00 %
25.12.2016 08:26 8,7 C 8,9 C 6,7 C 93 % 0 lf 1022,7 hPa 0,0 l/m 0 min 0 min 0 W/m 41,8 km/h (6 Bft) 100,00 %
25.12.2016 08:28 8,7 C 8,9 C 6,7 C 93 % 0 lf 1022,7 hPa 0,0 l/m 0 min 0 min 0 W/m 46,0 km/h (6 Bft) 97,87 %
25.12.2016 08:30 8,7 C 8,9 C 6,7 C 93 % 0 lf 1022,6 hPa 0,0 l/m 0 min 0 min 2 W/m 48,1 km/h (6 Bft) 97,87 %
25.12.2016 08:32 8,7 C 8,9 C 6,7 C 93 % 0 lf 1022,7 hPa 0,0 l/m 0 min 2 min 0 W/m 39,7 km/h (6 Bft) 97,87 %
25.12.2016 08:34 8,7 C 8,9 C 6,7 C 93 % 0 lf 1022,6 hPa 0,0 l/m 0 min 0 min 3 W/m 43,9 km/h (6 Bft) 100,00 %
25.12.2016 08:36 8,7 C 8,9 C 6,7 C 93 % 1 lf 1022,6 hPa 0,0 l/m 0 min 0 min 5 W/m 50,2 km/h (7 Bft) 97,87 %
25.12.2016 08:38 8,7 C 8,9 C 6,7 C 93 % 0 lf 1022,6 hPa 0,0 l/m 0 min 0 min 5 W/m 39,7 km/h (6 Bft) 95,74 %
25.12.2016 08:40 8,7 C 8,9 C 6,7 C 93 % 0 lf 1022,5 hPa 0,0 l/m 0 min 2 min 5 W/m 39,7 km/h (6 Bft) 100,00 %
25.12.2016 08:42 8,7 C 8,9 C 7,2 C 93 % 0 lf 1022,6 hPa 0,0 l/m 0 min 2 min 5 W/m 39,7 km/h (6 Bft) 93,62 %
25.12.2016 08:44 8,7 C 8,9 C 7,2 C 93 % 0 lf 1022,7 hPa 0,0 l/m 0 min 2 min 5 W/m 43,9 km/h (6 Bft) 95,74 %
25.12.2016 08:46 8,7 C 8,9 C 7,2 C 93 % 0 lf 1022,7 hPa 0,0 l/m 0 min 2 min 5 W/m 33,5 km/h (5 Bft) 95,65 %
25.12.2016 08:48 8,7 C 8,9 C 7,2 C 93 % 0 lf 1022,8 hPa 0,0 l/m 0 min 2 min 5 W/m 43,9 km/h (6 Bft) 95,74 %
25.12.2016 08:50 8,7 C 8,9 C 7,2 C 93 % 0 lf 1022,8 hPa 0,0 l/m 0 min 2 min 5 W/m 35,6 km/h (5 Bft) 97,87 %
25.12.2016 08:52 8,7 C 8,9 C 7,2 C 93 % 0 lf 1022,7 hPa 0,0 l/m 0 min 2 min 5 W/m 41,8 km/h (6 Bft) 97,87 %
25.12.2016 08:54 8,7 C 8,9 C 7,2 C 94 % 0 lf 1022,8 hPa 0,0 l/m 0 min 0 min 5 W/m 35,6 km/h (5 Bft) 97,87 %
25.12.2016 08:56 8,7 C 8,9 C 7,2 C 94 % 0 lf 1022,8 hPa 0,0 l/m 0 min 0 min 5 W/m 35,6 km/h (5 Bft) 97,87 %
25.12.2016 08:58 8,7 C 8,9 C 7,2 C 94 % 0 lf 1022,8 hPa 0,0 l/m 0 min 0 min 5 W/m 25,1 km/h (4 Bft) 93,48 %
25.12.2016 09:00 8,7 C 8,9 C 7,2 C 94 % 0 lf 1022,9 hPa 0,0 l/m 0 min 0 min 6 W/m 31,4 km/h (5 Bft) 97,87 %
25.12.2016 09:02 8,7 C 8,9 C 7,2 C 94 % 0 lf 1022,9 hPa 0,0 l/m 0 min 0 min 7 W/m 35,6 km/h (5 Bft) 95,74 %
25.12.2016 09:04 8,7 C 8,9 C 7,2 C 93 % 0 lf 1023,0 hPa 0,0 l/m 0 min 0 min 7 W/m 27,2 km/h (4 Bft) 91,49 %
25.12.2016 09:06 8,7 C 8,9 C 7,2 C 94 % 0 lf 1023,1 hPa 0,0 l/m 0 min 0 min 7 W/m 33,5 km/h (5 Bft) 97,87 %
25.12.2016 09:08 8,7 C 8,9 C 7,2 C 94 % 0 lf 1023,0 hPa 0,0 l/m 0 min 0 min 5 W/m 31,4 km/h (5 Bft) 93,62 %
25.12.2016 09:10 8,7 C 8,9 C 7,2 C 94 % 0 lf 1023,1 hPa 0,0 l/m 0 min 0 min 7 W/m 23,0 km/h (4 Bft) 91,30 %
25.12.2016 09:12 8,7 C 8,9 C 7,2 C 94 % 0 lf 1023,2 hPa 0,0 l/m 0 min 0 min 7 W/m 37,7 km/h (5 Bft) 95,74 %
25.12.2016 09:14 8,7 C 8,9 C 7,2 C 94 % 0 lf 1023,1 hPa 0,0 l/m 0 min 0 min 7 W/m 37,7 km/h (5 Bft) 93,62 %
25.12.2016 09:16 8,7 C 8,9 C 7,2 C 94 % 0 lf 1023,0 hPa 0,0 l/m 0 min 0 min 7 W/m 37,7 km/h (5 Bft) 93,62 %
25.12.2016 09:18 8,7 C 8,9 C 7,2 C 94 % 0 lf 1023,0 hPa 0,0 l/m 0 min 0 min 9 W/m 43,9 km/h (6 Bft) 95,74 %
25.12.2016 09:20 8,7 C 8,9 C 7,2 C 93 % 0 lf 1022,9 hPa 0,0 l/m 0 min 0 min 10 W/m 37,7 km/h (5 Bft) 95,74 %
25.12.2016 09:22 8,7 C 8,9 C 7,2 C 93 % 0 lf 1023,0 hPa 0,0 l/m 0 min 0 min 11 W/m 37,7 km/h (5 Bft) 93,48 %
25.12.2016 09:24 8,7 C 8,9 C 7,2 C 93 % 0 lf 1022,9 hPa 0,0 l/m 0 min 0 min 11 W/m 33,5 km/h (5 Bft) 95,74 %
25.12.2016 09:26 8,8 C 8,9 C 7,2 C 93 % 0 lf 1023,0 hPa 0,0 l/m 0 min 0 min 11 W/m 35,6 km/h (5 Bft) 95,74 %
25.12.2016 09:28 8,8 C 8,9 C 7,2 C 93 % 0 lf 1022,9 hPa 0,0 l/m 0 min 0 min 11 W/m 37,7 km/h (5 Bft) 97,87 %
25.12.2016 09:30 8,8 C 8,9 C 7,2 C 93 % 0 lf 1022,9 hPa 0,0 l/m 0 min 0 min 11 W/m 35,6 km/h (5 Bft) 97,87 %
25.12.2016 09:32 8,8 C 8,9 C 7,2 C 93 % 0 lf 1022,9 hPa 0,0 l/m 0 min 0 min 11 W/m 37,7 km/h (5 Bft) 91,49 %
25.12.2016 09:34 8,8 C 8,9 C 7,2 C 93 % 0 lf 1022,9 hPa 0,0 l/m 0 min 0 min 11 W/m 35,6 km/h (5 Bft) 95,65 %
25.12.2016 09:36 8,8 C 8,9 C 7,2 C 93 % 0 lf 1022,9 hPa 0,0 l/m 0 min 0 min 14 W/m 31,4 km/h (5 Bft) 100,00 %
25.12.2016 09:38 8,8 C 8,9 C 7,2 C 93 % 0 lf 1022,9 hPa 0,0 l/m 0 min 0 min 15 W/m 35,6 km/h (5 Bft) 100,00 %
25.12.2016 09:40 8,8 C 8,9 C 7,2 C 93 % 0 lf 1022,9 hPa 0,0 l/m 0 min 0 min 16 W/m 25,1 km/h (4 Bft) 100,00 %
25.12.2016 09:42 8,8 C 8,9 C 7,2 C 93 % 0 lf 1023,0 hPa 0,0 l/m 0 min 0 min 18 W/m 35,6 km/h (5 Bft) 97,87 %
25.12.2016 09:44 8,8 C 8,9 C 7,2 C 93 % 1 lf 1023,0 hPa 0,0 l/m 0 min 0 min 16 W/m 35,6 km/h (5 Bft) 100,00 %
25.12.2016 09:46 8,8 C 8,9 C 7,2 C 93 % 0 lf 1022,9 hPa 0,0 l/m 0 min 0 min 19 W/m 29,3 km/h (5 Bft) 100,00 %
25.12.2016 09:48 8,8 C 8,9 C 7,2 C 93 % 1 lf 1023,0 hPa 0,0 l/m 0 min 0 min 19 W/m 31,4 km/h (5 Bft) 100,00 %
25.12.2016 09:50 8,8 C 8,9 C 7,2 C 93 % 1 lf 1023,1 hPa 0,0 l/m 0 min 0 min 19 W/m 41,8 km/h (6 Bft) 100,00 %
25.12.2016 09:52 8,8 C 8,9 C 7,2 C 93 % 2 lf 1023,1 hPa 0,0 l/m 0 min 0 min 19 W/m 41,8 km/h (6 Bft) 100,00 %
25.12.2016 09:54 8,8 C 8,9 C 7,2 C 93 % 2 lf 1023,1 hPa 0,0 l/m 0 min 0 min 22 W/m 37,7 km/h (5 Bft) 93,62 %
25.12.2016 09:56 8,8 C 8,9 C 7,2 C 93 % 2 lf 1023,1 hPa 0,0 l/m 0 min 0 min 20 W/m 33,5 km/h (5 Bft) 95,65 %
25.12.2016 09:58 8,8 C 8,9 C 7,2 C 93 % 2 lf 1023,1 hPa 0,0 l/m 0 min 0 min 20 W/m 33,5 km/h (5 Bft) 97,87 %
25.12.2016 10:00 8,8 C 8,9 C 7,2 C 93 % 2 lf 1023,1 hPa 0,0 l/m 0 min 0 min 21 W/m 31,4 km/h (5 Bft) 95,74 %
25.12.2016 10:02 8,8 C 8,9 C 7,2 C 93 % 3 lf 1023,3 hPa 0,0 l/m 0 min 0 min 21 W/m 31,4 km/h (5 Bft) 97,87 %
25.12.2016 10:04 8,7 C 8,9 C 7,2 C 93 % 3 lf 1023,3 hPa 0,0 l/m 0 min 0 min 22 W/m 29,3 km/h (5 Bft) 97,87 %
25.12.2016 10:06 8,7 C 8,9 C 7,2 C 94 % 4 lf 1023,3 hPa 0,0 l/m 0 min 0 min 19 W/m 33,5 km/h (5 Bft) 93,62 %
25.12.2016 10:08 8,7 C 8,9 C 7,2 C 94 % 10 lf 1023,2 hPa 0,0 l/m 0 min 0 min 16 W/m 31,4 km/h (5 Bft) 95,65 %
25.12.2016 10:10 8,7 C 8,9 C 7,2 C 94 % 10 lf 1023,2 hPa 0,0 l/m 0 min 0 min 17 W/m 25,1 km/h (4 Bft) 97,87 %
25.12.2016 10:12 8,7 C 8,9 C 7,2 C 94 % 11 lf 1023,4 hPa 0,0 l/m 0 min 0 min 20 W/m 20,9 km/h (4 Bft) 95,74 %
25.12.2016 10:14 8,7 C 8,3 C 7,2 C 94 % 10 lf 1023,3 hPa 0,0 l/m 0 min 0 min 20 W/m 27,2 km/h (4 Bft) 95,74 %
25.12.2016 10:16 8,7 C 8,3 C 7,2 C 94 % 8 lf 1023,3 hPa 0,0 l/m 0 min 0 min 20 W/m 37,7 km/h (5 Bft) 95,74 %
25.12.2016 10:18 8,7 C 8,3 C 7,2 C 94 % 9 lf 1023,3 hPa 0,0 l/m 0 min 0 min 20 W/m 35,6 km/h (5 Bft) 97,87 %
25.12.2016 10:20 8,7 C 8,3 C 7,2 C 94 % 10 lf 1023,3 hPa 0,0 l/m 0 min 0 min 20 W/m 25,1 km/h (4 Bft) 97,83 %
25.12.2016 10:22 8,7 C 8,3 C 7,2 C 94 % 9 lf 1023,4 hPa 0,0 l/m 0 min 0 min 22 W/m 33,5 km/h (5 Bft) 95,74 %
25.12.2016 10:24 8,7 C 8,3 C 7,2 C 94 % 7 lf 1023,4 hPa 0,0 l/m 0 min 0 min 21 W/m 20,9 km/h (4 Bft) 93,62 %
25.12.2016 10:26 8,7 C 8,9 C 7,2 C 94 % 8 lf 1023,4 hPa 0,0 l/m 0 min 0 min 24 W/m 23,0 km/h (4 Bft) 95,74 %
25.12.2016 10:28 8,7 C 8,9 C 7,2 C 94 % 9 lf 1023,5 hPa 0,0 l/m 0 min 0 min 24 W/m 18,8 km/h (3 Bft) 93,62 %
25.12.2016 10:30 8,7 C 8,9 C 7,2 C 94 % 8 lf 1023,5 hPa 0,0 l/m 0 min 0 min 22 W/m 25,1 km/h (4 Bft) 93,48 %
25.12.2016 10:32 8,7 C 8,9 C 7,2 C 94 % 4 lf 1023,5 hPa 0,0 l/m 0 min 0 min 24 W/m 29,3 km/h (5 Bft) 93,62 %
25.12.2016 10:34 8,7 C 8,9 C 7,2 C 95 % 3 lf 1023,5 hPa 0,0 l/m 0 min 0 min 26 W/m 35,6 km/h (5 Bft) 95,74 %
25.12.2016 10:36 8,7 C 8,9 C 7,2 C 95 % 1 lf 1023,5 hPa 0,0 l/m 0 min 0 min 27 W/m 33,5 km/h (5 Bft) 95,74 %
25.12.2016 10:38 8,7 C 8,9 C 7,2 C 95 % 1 lf 1023,5 hPa 0,0 l/m 0 min 0 min 28 W/m 35,6 km/h (5 Bft) 95,74 %
25.12.2016 10:40 8,7 C 8,9 C 7,2 C 95 % 0 lf 1023,5 hPa 0,0 l/m 0 min 0 min 31 W/m 29,3 km/h (5 Bft) 95,74 %
25.12.2016 10:42 8,7 C 8,9 C 7,2 C 95 % 1 lf 1023,6 hPa 0,0 l/m 0 min 0 min 30 W/m 33,5 km/h (5 Bft) 93,48 %
25.12.2016 10:44 8,7 C 8,9 C 7,2 C 95 % 1 lf 1023,7 hPa 0,0 l/m 0 min 0 min 27 W/m 31,4 km/h (5 Bft) 100,00 %
25.12.2016 10:46 8,7 C 9,4 C 7,2 C 95 % 0 lf 1023,6 hPa 0,0 l/m 0 min 0 min 29 W/m 25,1 km/h (4 Bft) 97,87 %
25.12.2016 10:48 8,7 C 9,4 C 7,2 C 95 % 0 lf 1023,7 hPa 0,0 l/m 0 min 0 min 30 W/m 29,3 km/h (5 Bft) 91,49 %
25.12.2016 10:50 8,7 C 9,4 C 7,2 C 95 % 0 lf 1023,7 hPa 0,0 l/m 0 min 0 min 31 W/m 27,2 km/h (4 Bft) 95,74 %
25.12.2016 10:52 8,7 C 9,4 C 7,8 C 95 % 0 lf 1023,7 hPa 0,0 l/m 0 min 0 min 29 W/m 31,4 km/h (5 Bft) 97,87 %
25.12.2016 10:54 8,7 C 9,4 C 7,8 C 95 % 0 lf 1023,6 hPa 0,0 l/m 0 min 0 min 27 W/m 29,3 km/h (5 Bft) 97,83 %
25.12.2016 10:56 8,8 C 9,4 C 7,8 C 95 % 0 lf 1023,6 hPa 0,0 l/m 0 min 0 min 29 W/m 27,2 km/h (4 Bft) 91,49 %
25.12.2016 10:58 8,8 C 9,4 C 7,8 C 95 % 0 lf 1023,6 hPa 0,0 l/m 0 min 0 min 32 W/m 25,1 km/h (4 Bft) 91,49 %
25.12.2016 11:00 8,8 C 9,4 C 7,8 C 95 % 1 lf 1023,6 hPa 0,0 l/m 0 min 0 min 30 W/m 41,8 km/h (6 Bft) 91,49 %
25.12.2016 11:02 8,8 C 9,4 C 7,8 C 95 % 2 lf 1023,7 hPa 0,0 l/m 0 min 0 min 27 W/m 39,7 km/h (6 Bft) 93,62 %
25.12.2016 11:04 8,8 C 9,4 C 7,8 C 95 % 1 lf 1023,7 hPa 0,0 l/m 0 min 0 min 26 W/m 35,6 km/h (5 Bft) 95,74 %
25.12.2016 11:06 8,8 C 9,4 C 7,8 C 95 % 0 lf 1023,6 hPa 0,0 l/m 0 min 0 min 27 W/m 29,3 km/h (5 Bft) 93,48 %
25.12.2016 11:08 8,9 C 9,4 C 7,8 C 95 % 0 lf 1023,5 hPa 0,0 l/m 0 min 0 min 30 W/m 31,4 km/h (5 Bft) 95,74 %
25.12.2016 11:10 8,9 C 9,4 C 7,8 C 95 % 0 lf 1023,5 hPa 0,0 l/m 0 min 0 min 28 W/m 29,3 km/h (5 Bft) 95,74 %
25.12.2016 11:12 8,9 C 9,4 C 7,8 C 94 % 0 lf 1023,6 hPa 0,0 l/m 0 min 0 min 30 W/m 43,9 km/h (6 Bft) 93,62 %
25.12.2016 11:14 8,9 C 9,4 C 7,8 C 94 % 0 lf 1023,6 hPa 0,0 l/m 0 min 0 min 29 W/m 35,6 km/h (5 Bft) 91,49 %
25.12.2016 11:16 8,9 C 9,4 C 7,8 C 94 % 0 lf 1023,6 hPa 0,0 l/m 0 min 0 min 29 W/m 25,1 km/h (4 Bft) 93,62 %
25.12.2016 11:18 8,9 C 9,4 C 7,8 C 94 % 0 lf 1023,5 hPa 0,0 l/m 0 min 0 min 28 W/m 31,4 km/h (5 Bft) 91,30 %
25.12.2016 11:20 8,9 C 9,4 C 7,8 C 94 % 0 lf 1023,5 hPa 0,0 l/m 0 min 0 min 29 W/m 35,6 km/h (5 Bft) 91,49 %
25.12.2016 11:22 8,9 C 9,4 C 7,8 C 94 % 0 lf 1023,5 hPa 0,0 l/m 0 min 0 min 28 W/m 29,3 km/h (5 Bft) 91,49 %
25.12.2016 11:24 9,0 C 9,4 C 7,8 C 94 % 0 lf 1023,4 hPa 0,0 l/m 0 min 0 min 30 W/m 31,4 km/h (5 Bft) 91,49 %
25.12.2016 11:26 9,0 C 9,4 C 7,8 C 94 % 0 lf 1023,5 hPa 0,0 l/m 0 min 0 min 28 W/m 29,3 km/h (5 Bft) 97,87 %
25.12.2016 11:28 9,0 C 9,4 C 7,8 C 94 % 0 lf 1023,6 hPa 0,0 l/m 0 min 0 min 25 W/m 33,5 km/h (5 Bft) 93,62 %
25.12.2016 11:30 9,0 C 9,4 C 7,8 C 94 % 0 lf 1023,6 hPa 0,0 l/m 0 min 0 min 23 W/m 33,5 km/h (5 Bft) 95,65 %
25.12.2016 11:32 9,0 C 9,4 C 7,8 C 94 % 0 lf 1023,5 hPa 0,0 l/m 0 min 0 min 23 W/m 50,2 km/h (7 Bft) 95,74 %
25.12.2016 11:34 9,1 C 9,4 C 7,8 C 94 % 0 lf 1023,4 hPa 0,0 l/m 0 min 0 min 20 W/m 46,0 km/h (6 Bft) 93,62 %
25.12.2016 11:36 9,1 C 9,4 C 7,8 C 94 % 0 lf 1023,4 hPa 0,0 l/m 0 min 0 min 18 W/m 41,8 km/h (6 Bft) 93,62 %
25.12.2016 11:38 9,1 C 9,4 C 7,8 C 94 % 0 lf 1023,5 hPa 0,0 l/m 0 min 0 min 18 W/m 33,5 km/h (5 Bft) 93,62 %
25.12.2016 11:40 9,1 C 9,4 C 7,8 C 94 % 0 lf 1023,6 hPa 0,0 l/m 0 min 0 min 19 W/m 33,5 km/h (5 Bft) 91,49 %
25.12.2016 11:42 9,1 C 9,4 C 7,8 C 93 % 0 lf 1023,5 hPa 0,0 l/m 0 min 0 min 19 W/m 31,4 km/h (5 Bft) 93,48 %
25.12.2016 11:44 9,1 C 9,4 C 7,8 C 93 % 0 lf 1023,6 hPa 0,0 l/m 0 min 0 min 20 W/m 31,4 km/h (5 Bft) 95,74 %
25.12.2016 11:46 9,1 C 9,4 C 7,8 C 93 % 0 lf 1023,6 hPa 0,0 l/m 0 min 0 min 21 W/m 33,5 km/h (5 Bft) 91,49 %
25.12.2016 11:48 9,1 C 9,4 C 7,8 C 93 % 0 lf 1023,6 hPa 0,0 l/m 0 min 0 min 22 W/m 27,2 km/h (4 Bft) 95,74 %
25.12.2016 11:50 9,1 C 9,4 C 7,8 C 93 % 0 lf 1023,6 hPa 0,0 l/m 0 min 0 min 25 W/m 37,7 km/h (5 Bft) 95,74 %
25.12.2016 11:52 9,1 C 9,4 C 7,8 C 93 % 0 lf 1023,5 hPa 0,0 l/m 0 min 0 min 31 W/m 29,3 km/h (5 Bft) 93,62 %
25.12.2016 11:54 9,1 C 9,4 C 7,8 C 93 % 0 lf 1023,5 hPa 0,0 l/m 0 min 0 min 33 W/m 27,2 km/h (4 Bft) 93,48 %
25.12.2016 11:56 9,1 C 9,4 C 7,8 C 93 % 0 lf 1023,6 hPa 0,0 l/m 0 min 0 min 38 W/m 37,7 km/h (5 Bft) 91,49 %
25.12.2016 11:58 9,1 C 9,4 C 8,3 C 93 % 0 lf 1023,5 hPa 0,0 l/m 0 min 0 min 41 W/m 31,4 km/h (5 Bft) 97,87 %
25.12.2016 12:00 9,1 C 9,4 C 8,3 C 93 % 0 lf 1023,5 hPa 0,0 l/m 0 min 0 min 40 W/m 27,2 km/h (4 Bft) 97,87 %
25.12.2016 12:02 9,2 C 9,4 C 8,3 C 93 % 0 lf 1023,6 hPa 0,0 l/m 0 min 0 min 44 W/m 35,6 km/h (5 Bft) 97,87 %
25.12.2016 12:06 9,2 C 9,4 C 8,3 C 93 % 0 lf 1023,5 hPa 0,0 l/m 0 min 0 min 46 W/m 41,8 km/h (6 Bft) 95,70 %
25.12.2016 12:08 9,2 C 9,4 C 8,3 C 93 % 0 lf 1023,5 hPa 0,0 l/m 0 min 0 min 40 W/m 27,2 km/h (4 Bft) 100,00 %
25.12.2016 12:10 9,2 C 9,4 C 8,3 C 93 % 0 lf 1023,5 hPa 0,0 l/m 0 min 0 min 38 W/m 46,0 km/h (6 Bft) 97,87 %
25.12.2016 12:12 9,2 C 9,4 C 8,3 C 93 % 0 lf 1023,4 hPa 0,0 l/m 0 min 0 min 37 W/m 37,7 km/h (5 Bft) 97,87 %
25.12.2016 12:14 9,2 C 9,4 C 8,3 C 93 % 0 lf 1023,5 hPa 0,0 l/m 0 min 0 min 35 W/m 31,4 km/h (5 Bft) 95,74 %
25.12.2016 12:16 9,2 C 9,4 C 8,3 C 93 % 0 lf 1023,4 hPa 0,0 l/m 0 min 0 min 35 W/m 37,7 km/h (5 Bft) 100,00 %
25.12.2016 12:18 9,2 C 9,4 C 8,3 C 93 % 0 lf 1023,4 hPa 0,0 l/m 0 min 0 min 35 W/m 46,0 km/h (6 Bft) 100,00 %
25.12.2016 12:20 9,2 C 9,4 C 8,3 C 93 % 0 lf 1023,3 hPa 0,0 l/m 0 min 0 min 36 W/m 43,9 km/h (6 Bft) 97,87 %
25.12.2016 12:22 9,2 C 9,4 C 8,3 C 93 % 0 lf 1023,3 hPa 0,0 l/m 0 min 0 min 34 W/m 43,9 km/h (6 Bft) 97,87 %
25.12.2016 12:24 9,2 C 9,4 C 8,3 C 93 % 0 lf 1023,4 hPa 0,0 l/m 0 min 0 min 34 W/m 43,9 km/h (6 Bft) 95,74 %
25.12.2016 12:26 9,2 C 9,4 C 8,3 C 93 % 0 lf 1023,3 hPa 0,0 l/m 0 min 0 min 39 W/m 46,0 km/h (6 Bft) 97,87 %
25.12.2016 12:28 9,2 C 9,4 C 8,3 C 93 % 0 lf 1023,3 hPa 0,0 l/m 0 min 0 min 37 W/m 39,7 km/h (6 Bft) 97,83 %
25.12.2016 12:30 9,2 C 9,4 C 8,3 C 93 % 0 lf 1023,2 hPa 0,0 l/m 0 min 0 min 39 W/m 37,7 km/h (5 Bft) 100,00 %
25.12.2016 12:32 9,2 C 9,4 C 8,3 C 93 % 0 lf 1023,2 hPa 0,0 l/m 0 min 0 min 42 W/m 46,0 km/h (6 Bft) 100,00 %
25.12.2016 12:34 9,2 C 9,4 C 8,3 C 93 % 0 lf 1023,1 hPa 0,0 l/m 0 min 0 min 38 W/m 39,7 km/h (6 Bft) 100,00 %
25.12.2016 12:36 9,2 C 9,4 C 8,3 C 93 % 0 lf 1023,3 hPa 0,0 l/m 0 min 0 min 34 W/m 41,8 km/h (6 Bft) 97,87 %
25.12.2016 12:38 9,2 C 9,4 C 8,3 C 93 % 0 lf 1023,3 hPa 0,0 l/m 0 min 0 min 35 W/m 48,1 km/h (6 Bft) 100,00 %
25.12.2016 12:40 9,2 C 9,4 C 8,3 C 93 % 0 lf 1023,0 hPa 0,0 l/m 0 min 0 min 46 W/m 41,8 km/h (6 Bft) 95,65 %
25.12.2016 12:42 9,2 C 9,4 C 8,3 C 93 % 0 lf 1023,1 hPa 0,0 l/m 0 min 0 min 65 W/m 41,8 km/h (6 Bft) 95,74 %
25.12.2016 12:44 9,2 C 10,0 C 8,3 C 93 % 0 lf 1023,1 hPa 0,0 l/m 0 min 0 min 69 W/m 41,8 km/h (6 Bft) 100,00 %
25.12.2016 12:46 9,2 C 9,4 C 8,3 C 93 % 0 lf 1023,1 hPa 0,0 l/m 0 min 0 min 57 W/m 37,7 km/h (5 Bft) 97,87 %
25.12.2016 12:48 9,2 C 9,4 C 8,3 C 93 % 0 lf 1023,1 hPa 0,0 l/m 0 min 0 min 42 W/m 41,8 km/h (6 Bft) 97,87 %
25.12.2016 12:50 9,2 C 9,4 C 8,3 C 93 % 0 lf 1023,0 hPa 0,0 l/m 0 min 0 min 46 W/m 35,6 km/h (5 Bft) 95,74 %
25.12.2016 12:52 9,2 C 9,4 C 8,3 C 93 % 0 lf 1023,1 hPa 0,0 l/m 0 min 0 min 56 W/m 29,3 km/h (5 Bft) 91,30 %
25.12.2016 12:54 9,2 C 9,4 C 8,3 C 93 % 0 lf 1023,3 hPa 0,0 l/m 0 min 0 min 55 W/m 52,3 km/h (7 Bft) 95,74 %
25.12.2016 12:56 9,2 C 9,4 C 8,3 C 93 % 0 lf 1023,1 hPa 0,0 l/m 0 min 0 min 46 W/m 46,0 km/h (6 Bft) 95,74 %
25.12.2016 12:58 9,2 C 9,4 C 8,3 C 93 % 0 lf 1023,0 hPa 0,0 l/m 0 min 0 min 44 W/m 43,9 km/h (6 Bft) 93,62 %
25.12.2016 13:00 9,2 C 9,4 C 8,3 C 93 % 0 lf 1023,0 hPa 0,0 l/m 0 min 0 min 43 W/m 37,7 km/h (5 Bft) 95,74 %
25.12.2016 13:02 9,2 C 9,4 C 8,3 C 93 % 0 lf 1023,1 hPa 0,0 l/m 0 min 0 min 42 W/m 35,6 km/h (5 Bft) 89,36 %
25.12.2016 13:04 9,2 C 9,4 C 8,3 C 93 % 0 lf 1023,1 hPa 0,0 l/m 0 min 0 min 42 W/m 43,9 km/h (6 Bft) 95,65 %
25.12.2016 13:06 9,2 C 9,4 C 8,3 C 93 % 0 lf 1022,9 hPa 0,0 l/m 0 min 0 min 46 W/m 37,7 km/h (5 Bft) 93,62 %
25.12.2016 13:08 9,2 C 9,4 C 8,3 C 93 % 0 lf 1023,0 hPa 0,0 l/m 0 min 0 min 46 W/m 37,7 km/h (5 Bft) 95,74 %
25.12.2016 13:10 9,2 C 9,4 C 8,3 C 93 % 0 lf 1022,9 hPa 0,0 l/m 0 min 0 min 42 W/m 37,7 km/h (5 Bft) 95,74 %
25.12.2016 13:12 9,2 C 9,4 C 8,3 C 93 % 0 lf 1022,9 hPa 0,0 l/m 0 min 0 min 40 W/m 43,9 km/h (6 Bft) 91,49 %
25.12.2016 13:14 9,2 C 9,4 C 8,3 C 93 % 0 lf 1022,9 hPa 0,0 l/m 0 min 0 min 40 W/m 41,8 km/h (6 Bft) 95,65 %
25.12.2016 13:16 9,2 C 9,4 C 8,3 C 93 % 0 lf 1023,0 hPa 0,0 l/m 0 min 0 min 48 W/m 43,9 km/h (6 Bft) 93,62 %
25.12.2016 13:18 9,2 C 9,4 C 8,3 C 93 % 0 lf 1022,9 hPa 0,0 l/m 0 min 0 min 58 W/m 46,0 km/h (6 Bft) 95,74 %
25.12.2016 13:20 9,2 C 9,4 C 8,3 C 93 % 0 lf 1022,9 hPa 0,0 l/m 0 min 0 min 50 W/m 39,7 km/h (6 Bft) 91,49 %
25.12.2016 13:22 9,2 C 9,4 C 8,3 C 93 % 0 lf 1022,9 hPa 0,0 l/m 0 min 0 min 47 W/m 37,7 km/h (5 Bft) 95,74 %
25.12.2016 13:24 9,2 C 9,4 C 8,3 C 93 % 0 lf 1022,9 hPa 0,0 l/m 0 min 0 min 44 W/m 27,2 km/h (4 Bft) 95,74 %
25.12.2016 13:26 9,2 C 9,4 C 8,3 C 93 % 0 lf 1023,0 hPa 0,0 l/m 0 min 0 min 42 W/m 37,7 km/h (5 Bft) 97,83 %
25.12.2016 13:28 9,2 C 9,4 C 8,3 C 93 % 0 lf 1022,9 hPa 0,0 l/m 0 min 0 min 45 W/m 39,7 km/h (6 Bft) 95,74 %
25.12.2016 13:30 9,2 C 9,4 C 8,3 C 93 % 0 lf 1023,0 hPa 0,0 l/m 0 min 0 min 37 W/m 39,7 km/h (6 Bft) 97,87 %
25.12.2016 13:32 9,2 C 9,4 C 8,3 C 93 % 0 lf 1023,0 hPa 0,0 l/m 0 min 0 min 35 W/m 37,7 km/h (5 Bft) 95,74 %
25.12.2016 13:34 9,2 C 9,4 C 8,3 C 93 % 0 lf 1023,0 hPa 0,0 l/m 0 min 0 min 38 W/m 46,0 km/h (6 Bft) 97,87 %
25.12.2016 13:36 9,2 C 9,4 C 8,3 C 93 % 0 lf 1022,9 hPa 0,0 l/m 0 min 0 min 41 W/m 35,6 km/h (5 Bft) 97,87 %
25.12.2016 13:38 9,2 C 9,4 C 8,3 C 93 % 0 lf 1023,0 hPa 0,0 l/m 0 min 0 min 42 W/m 39,7 km/h (6 Bft) 97,83 %
25.12.2016 13:40 9,2 C 9,4 C 8,3 C 93 % 0 lf 1022,9 hPa 0,0 l/m 0 min 0 min 48 W/m 37,7 km/h (5 Bft) 95,74 %
25.12.2016 13:42 9,2 C 9,4 C 8,3 C 93 % 0 lf 1023,0 hPa 0,0 l/m 0 min 0 min 47 W/m 35,6 km/h (5 Bft) 100,00 %
25.12.2016 13:44 9,2 C 9,4 C 8,3 C 93 % 0 lf 1023,0 hPa 0,0 l/m 0 min 0 min 40 W/m 37,7 km/h (5 Bft) 95,74 %
25.12.2016 13:46 9,2 C 9,4 C 8,3 C 93 % 0 lf 1023,0 hPa 0,0 l/m 0 min 0 min 36 W/m 29,3 km/h (5 Bft) 100,00 %
25.12.2016 13:48 9,3 C 9,4 C 8,3 C 93 % 0 lf 1023,0 hPa 0,0 l/m 0 min 0 min 41 W/m 35,6 km/h (5 Bft) 93,62 %
25.12.2016 13:50 9,2 C 9,4 C 8,3 C 93 % 0 lf 1023,0 hPa 0,0 l/m 0 min 0 min 44 W/m 37,7 km/h (5 Bft) 97,83 %
25.12.2016 13:52 9,2 C 9,4 C 8,3 C 93 % 0 lf 1023,0 hPa 0,0 l/m 0 min 0 min 39 W/m 41,8 km/h (6 Bft) 97,87 %
25.12.2016 13:54 9,2 C 9,4 C 8,3 C 93 % 0 lf 1022,9 hPa 0,0 l/m 0 min 0 min 36 W/m 39,7 km/h (6 Bft) 100,00 %
25.12.2016 13:56 9,2 C 9,4 C 8,3 C 93 % 0 lf 1023,0 hPa 0,0 l/m 0 min 0 min 35 W/m 35,6 km/h (5 Bft) 93,62 %
25.12.2016 13:58 9,2 C 9,4 C 8,3 C 93 % 0 lf 1022,9 hPa 0,0 l/m 0 min 0 min 43 W/m 35,6 km/h (5 Bft) 93,62 %
25.12.2016 14:00 9,2 C 9,4 C 8,3 C 93 % 0 lf 1022,9 hPa 0,0 l/m 0 min 0 min 41 W/m 37,7 km/h (5 Bft) 97,87 %
25.12.2016 14:02 9,2 C 9,4 C 8,3 C 93 % 0 lf 1023,0 hPa 0,0 l/m 0 min 0 min 39 W/m 39,7 km/h (6 Bft) 93,48 %
25.12.2016 14:04 9,2 C 9,4 C 8,3 C 93 % 0 lf 1022,9 hPa 0,0 l/m 0 min 0 min 39 W/m 37,7 km/h (5 Bft) 97,87 %
25.12.2016 14:06 9,2 C 9,4 C 8,3 C 93 % 0 lf 1023,0 hPa 0,0 l/m 0 min 0 min 36 W/m 35,6 km/h (5 Bft) 93,62 %
25.12.2016 14:08 9,2 C 9,4 C 8,3 C 93 % 0 lf 1022,9 hPa 0,0 l/m 0 min 0 min 35 W/m 35,6 km/h (5 Bft) 95,74 %
25.12.2016 14:10 9,2 C 9,4 C 8,3 C 93 % 0 lf 1022,9 hPa 0,0 l/m 0 min 0 min 32 W/m 43,9 km/h (6 Bft) 95,74 %
25.12.2016 14:12 9,2 C 9,4 C 8,3 C 93 % 0 lf 1022,9 hPa 0,0 l/m 0 min 0 min 35 W/m 43,9 km/h (6 Bft) 93,62 %
25.12.2016 14:14 9,2 C 9,4 C 8,3 C 93 % 0 lf 1022,9 hPa 0,0 l/m 0 min 0 min 38 W/m 25,1 km/h (4 Bft) 97,83 %
25.12.2016 14:16 9,2 C 9,4 C 8,3 C 93 % 0 lf 1022,9 hPa 0,0 l/m 0 min 0 min 34 W/m 31,4 km/h (5 Bft) 97,87 %
25.12.2016 14:18 9,2 C 9,4 C 8,3 C 93 % 0 lf 1022,9 hPa 0,0 l/m 0 min 0 min 32 W/m 31,4 km/h (5 Bft) 93,62 %
25.12.2016 14:20 9,2 C 9,4 C 8,3 C 93 % 0 lf 1022,9 hPa 0,0 l/m 0 min 0 min 32 W/m 35,6 km/h (5 Bft) 93,62 %
25.12.2016 14:22 9,2 C 9,4 C 8,3 C 93 % 0 lf 1022,9 hPa 0,0 l/m 0 min 0 min 33 W/m 33,5 km/h (5 Bft) 93,62 %
25.12.2016 14:24 9,2 C 9,4 C 8,3 C 93 % 0 lf 1023,0 hPa 0,0 l/m 0 min 0 min 34 W/m 31,4 km/h (5 Bft) 97,83 %
25.12.2016 14:26 9,2 C 9,4 C 8,3 C 93 % 0 lf 1022,9 hPa 0,0 l/m 0 min 0 min 36 W/m 35,6 km/h (5 Bft) 100,00 %
25.12.2016 14:28 9,2 C 9,4 C 8,3 C 93 % 0 lf 1022,9 hPa 0,0 l/m 0 min 0 min 34 W/m 37,7 km/h (5 Bft) 97,87 %
25.12.2016 14:30 9,2 C 9,4 C 8,3 C 93 % 0 lf 1022,9 hPa 0,0 l/m 0 min 0 min 29 W/m 35,6 km/h (5 Bft) 95,74 %
25.12.2016 14:32 9,3 C 9,4 C 8,3 C 93 % 0 lf 1022,9 hPa 0,0 l/m 0 min 0 min 27 W/m 31,4 km/h (5 Bft) 95,74 %
25.12.2016 14:34 9,2 C 9,4 C 8,3 C 93 % 0 lf 1022,9 hPa 0,0 l/m 0 min 0 min 24 W/m 37,7 km/h (5 Bft) 97,87 %
25.12.2016 14:36 9,3 C 9,4 C 8,3 C 93 % 0 lf 1022,9 hPa 0,0 l/m 0 min 0 min 25 W/m 31,4 km/h (5 Bft) 95,65 %
25.12.2016 14:38 9,3 C 9,4 C 8,3 C 93 % 0 lf 1022,9 hPa 0,0 l/m 0 min 0 min 28 W/m 33,5 km/h (5 Bft) 97,87 %
25.12.2016 14:40 9,3 C 9,4 C 8,3 C 93 % 0 lf 1022,9 hPa 0,0 l/m 0 min 0 min 25 W/m 37,7 km/h (5 Bft) 89,36 %
25.12.2016 14:42 9,3 C 9,4 C 8,3 C 93 % 0 lf 1023,0 hPa 0,0 l/m 0 min 0 min 26 W/m 31,4 km/h (5 Bft) 97,87 %
25.12.2016 14:44 9,3 C 9,4 C 8,3 C 93 % 0 lf 1023,0 hPa 0,0 l/m 0 min 0 min 26 W/m 43,9 km/h (6 Bft) 93,62 %
25.12.2016 14:46 9,3 C 9,4 C 8,3 C 93 % 0 lf 1023,1 hPa 0,0 l/m 0 min 0 min 25 W/m 43,9 km/h (6 Bft) 93,62 %
25.12.2016 14:48 9,3 C 9,4 C 8,3 C 93 % 0 lf 1023,0 hPa 0,0 l/m 0 min 0 min 26 W/m 39,7 km/h (6 Bft) 95,65 %
25.12.2016 14:50 9,3 C 9,4 C 8,3 C 93 % 0 lf 1023,0 hPa 0,0 l/m 0 min 0 min 28 W/m 33,5 km/h (5 Bft) 95,74 %
25.12.2016 14:52 9,3 C 9,4 C 8,3 C 94 % 0 lf 1023,0 hPa 0,0 l/m 0 min 0 min 29 W/m 35,6 km/h (5 Bft) 91,49 %
25.12.2016 14:54 9,3 C 9,4 C 8,3 C 94 % 0 lf 1023,0 hPa 0,0 l/m 0 min 0 min 23 W/m 33,5 km/h (5 Bft) 91,49 %
25.12.2016 14:56 9,3 C 9,4 C 8,3 C 94 % 0 lf 1023,0 hPa 0,0 l/m 0 min 0 min 25 W/m 37,7 km/h (5 Bft) 93,62 %
25.12.2016 14:58 9,3 C 9,4 C 8,3 C 94 % 0 lf 1023,1 hPa 0,0 l/m 0 min 0 min 23 W/m 39,7 km/h (6 Bft) 95,74 %
25.12.2016 15:00 9,3 C 9,4 C 8,3 C 94 % 0 lf 1023,0 hPa 0,0 l/m 0 min 0 min 20 W/m 37,7 km/h (5 Bft) 93,48 %
25.12.2016 15:02 9,3 C 9,4 C 8,3 C 94 % 0 lf 1023,0 hPa 0,0 l/m 0 min 0 min 20 W/m 39,7 km/h (6 Bft) 91,49 %
25.12.2016 15:04 9,3 C 9,4 C 8,3 C 94 % 0 lf 1023,1 hPa 0,0 l/m 0 min 0 min 20 W/m 31,4 km/h (5 Bft) 95,74 %
25.12.2016 15:06 9,3 C 9,4 C 8,3 C 94 % 0 lf 1023,1 hPa 0,0 l/m 0 min 0 min 20 W/m 41,8 km/h (6 Bft) 95,74 %
25.12.2016 15:08 9,3 C 9,4 C 8,3 C 94 % 0 lf 1023,1 hPa 0,0 l/m 0 min 0 min 19 W/m 35,6 km/h (5 Bft) 95,74 %
25.12.2016 15:10 9,3 C 9,4 C 8,3 C 94 % 0 lf 1023,0 hPa 0,0 l/m 0 min 0 min 20 W/m 41,8 km/h (6 Bft) 95,74 %
25.12.2016 15:12 9,3 C 9,4 C 8,3 C 94 % 0 lf 1023,1 hPa 0,0 l/m 0 min 0 min 21 W/m 48,1 km/h (6 Bft) 95,65 %
25.12.2016 15:14 9,3 C 9,4 C 8,3 C 94 % 0 lf 1023,1 hPa 0,0 l/m 0 min 0 min 22 W/m 35,6 km/h (5 Bft) 93,62 %
25.12.2016 15:16 9,3 C 9,4 C 8,3 C 94 % 0 lf 1023,1 hPa 0,0 l/m 0 min 0 min 21 W/m 37,7 km/h (5 Bft) 95,74 %
25.12.2016 15:18 9,3 C 9,4 C 8,3 C 94 % 0 lf 1023,1 hPa 0,0 l/m 0 min 0 min 20 W/m 35,6 km/h (5 Bft) 97,87 %
25.12.2016 15:20 9,3 C 9,4 C 8,3 C 94 % 0 lf 1023,2 hPa 0,0 l/m 0 min 0 min 20 W/m 54,4 km/h (7 Bft) 95,74 %
25.12.2016 15:22 9,3 C 9,4 C 8,3 C 94 % 0 lf 1023,1 hPa 0,0 l/m 0 min 0 min 23 W/m 31,4 km/h (5 Bft) 93,62 %
25.12.2016 15:24 9,3 C 9,4 C 8,3 C 94 % 0 lf 1023,1 hPa 0,0 l/m 0 min 0 min 22 W/m 41,8 km/h (6 Bft) 97,83 %
25.12.2016 15:26 9,3 C 9,4 C 8,3 C 94 % 0 lf 1023,1 hPa 0,0 l/m 0 min 0 min 20 W/m 41,8 km/h (6 Bft) 95,74 %
25.12.2016 15:28 9,3 C 9,4 C 8,3 C 94 % 0 lf 1023,1 hPa 0,0 l/m 0 min 0 min 18 W/m 43,9 km/h (6 Bft) 95,74 %
25.12.2016 15:30 9,3 C 9,4 C 8,3 C 94 % 0 lf 1023,2 hPa 0,0 l/m 0 min 0 min 19 W/m 37,7 km/h (5 Bft) 95,74 %
25.12.2016 15:32 9,3 C 9,4 C 8,3 C 94 % 0 lf 1023,2 hPa 0,0 l/m 0 min 0 min 19 W/m 35,6 km/h (5 Bft) 93,62 %
25.12.2016 15:34 9,3 C 9,4 C 8,3 C 94 % 0 lf 1023,2 hPa 0,0 l/m 0 min 0 min 17 W/m 37,7 km/h (5 Bft) 95,74 %
25.12.2016 15:36 9,3 C 9,4 C 7,8 C 94 % 0 lf 1023,2 hPa 0,0 l/m 0 min 0 min 16 W/m 43,9 km/h (6 Bft) 97,83 %
25.12.2016 15:38 9,3 C 9,4 C 7,8 C 94 % 0 lf 1023,1 hPa 0,0 l/m 0 min 0 min 18 W/m 37,7 km/h (5 Bft) 97,87 %
25.12.2016 15:40 9,3 C 9,4 C 7,8 C 94 % 0 lf 1023,2 hPa 0,0 l/m 0 min 0 min 15 W/m 33,5 km/h (5 Bft) 97,87 %
25.12.2016 15:42 9,3 C 9,4 C 7,8 C 94 % 0 lf 1023,3 hPa 0,0 l/m 0 min 0 min 14 W/m 39,7 km/h (6 Bft) 97,87 %
25.12.2016 15:44 9,3 C 9,4 C 7,8 C 94 % 0 lf 1023,3 hPa 0,0 l/m 0 min 0 min 12 W/m 37,7 km/h (5 Bft) 95,74 %
25.12.2016 15:46 9,3 C 9,4 C 7,8 C 95 % 0 lf 1023,2 hPa 0,0 l/m 0 min 0 min 11 W/m 37,7 km/h (5 Bft) 91,30 %
25.12.2016 15:48 9,3 C 9,4 C 7,8 C 95 % 0 lf 1023,2 hPa 0,0 l/m 0 min 0 min 12 W/m 41,8 km/h (6 Bft) 91,49 %
25.12.2016 15:50 9,3 C 9,4 C 7,8 C 95 % 0 lf 1023,2 hPa 0,0 l/m 0 min 0 min 12 W/m 37,7 km/h (5 Bft) 97,87 %
25.12.2016 15:52 9,3 C 9,4 C 7,8 C 95 % 0 lf 1023,2 hPa 0,0 l/m 0 min 0 min 12 W/m 29,3 km/h (5 Bft) 97,87 %
25.12.2016 15:54 9,3 C 9,4 C 7,8 C 95 % 0 lf 1023,3 hPa 0,0 l/m 0 min 0 min 11 W/m 29,3 km/h (5 Bft) 97,87 %
25.12.2016 15:56 9,3 C 9,4 C 7,8 C 95 % 0 lf 1023,4 hPa 0,0 l/m 0 min 0 min 11 W/m 33,5 km/h (5 Bft) 97,87 %
25.12.2016 15:58 9,2 C 9,4 C 7,8 C 94 % 0 lf 1023,4 hPa 0,0 l/m 0 min 0 min 11 W/m 35,6 km/h (5 Bft) 93,48 %
25.12.2016 16:00 9,2 C 9,4 C 7,8 C 95 % 0 lf 1023,4 hPa 0,0 l/m 0 min 0 min 10 W/m 35,6 km/h (5 Bft) 93,62 %
25.12.2016 16:02 9,2 C 9,4 C 7,8 C 95 % 0 lf 1023,4 hPa 0,0 l/m 0 min 0 min 10 W/m 43,9 km/h (6 Bft) 97,87 %
25.12.2016 16:04 9,2 C 9,4 C 7,8 C 95 % 0 lf 1023,3 hPa 0,0 l/m 0 min 0 min 9 W/m 43,9 km/h (6 Bft) 95,74 %
25.12.2016 16:06 9,2 C 9,4 C 7,8 C 95 % 1 lf 1023,4 hPa 0,0 l/m 0 min 0 min 9 W/m 35,6 km/h (5 Bft) 97,87 %
25.12.2016 16:08 9,2 C 9,4 C 7,8 C 95 % 1 lf 1023,4 hPa 0,0 l/m 0 min 0 min 7 W/m 41,8 km/h (6 Bft) 93,62 %
25.12.2016 16:10 9,2 C 9,4 C 7,8 C 95 % 1 lf 1023,4 hPa 0,0 l/m 0 min 0 min 8 W/m 31,4 km/h (5 Bft) 97,83 %
25.12.2016 16:12 9,2 C 9,4 C 7,8 C 95 % 1 lf 1023,4 hPa 0,0 l/m 0 min 0 min 7 W/m 31,4 km/h (5 Bft) 95,74 %
25.12.2016 16:14 9,2 C 9,4 C 7,8 C 95 % 0 lf 1023,4 hPa 0,0 l/m 0 min 0 min 7 W/m 29,3 km/h (5 Bft) 97,87 %
25.12.2016 16:16 9,2 C 9,4 C 7,8 C 95 % 0 lf 1023,3 hPa 0,0 l/m 0 min 0 min 7 W/m 33,5 km/h (5 Bft) 91,49 %
25.12.2016 16:18 9,2 C 9,4 C 7,8 C 95 % 0 lf 1023,4 hPa 0,0 l/m 0 min 0 min 7 W/m 33,5 km/h (5 Bft) 95,74 %
25.12.2016 16:20 9,2 C 9,4 C 7,8 C 95 % 1 lf 1023,4 hPa 0,0 l/m 0 min 0 min 6 W/m 27,2 km/h (4 Bft) 97,87 %
25.12.2016 16:22 9,2 C 9,4 C 7,8 C 95 % 0 lf 1023,3 hPa 0,0 l/m 0 min 0 min 5 W/m 31,4 km/h (5 Bft) 95,65 %
25.12.2016 16:24 9,2 C 9,4 C 7,8 C 95 % 0 lf 1023,4 hPa 0,0 l/m 0 min 0 min 5 W/m 31,4 km/h (5 Bft) 95,74 %
25.12.2016 16:26 9,2 C 9,4 C 7,8 C 95 % 1 lf 1023,4 hPa 0,0 l/m 0 min 0 min 5 W/m 31,4 km/h (5 Bft) 93,62 %
25.12.2016 16:28 9,2 C 9,4 C 7,8 C 95 % 1 lf 1023,4 hPa 0,0 l/m 0 min 0 min 5 W/m 23,0 km/h (4 Bft) 95,74 %
25.12.2016 16:30 9,2 C 9,4 C 7,8 C 95 % 0 lf 1023,5 hPa 0,0 l/m 0 min 0 min 5 W/m 25,1 km/h (4 Bft) 97,87 %
25.12.2016 16:32 9,2 C 9,4 C 7,8 C 95 % 1 lf 1023,4 hPa 0,0 l/m 0 min 0 min 5 W/m 25,1 km/h (4 Bft) 97,87 %
25.12.2016 16:34 9,2 C 9,4 C 7,8 C 95 % 1 lf 1023,4 hPa 0,0 l/m 0 min 0 min 5 W/m 33,5 km/h (5 Bft) 97,83 %
25.12.2016 16:36 9,2 C 9,4 C 7,8 C 95 % 1 lf 1023,4 hPa 0,0 l/m 0 min 0 min 5 W/m 33,5 km/h (5 Bft) 93,62 %
25.12.2016 16:38 9,2 C 9,4 C 7,8 C 95 % 0 lf 1023,4 hPa 0,0 l/m 0 min 0 min 5 W/m 31,4 km/h (5 Bft) 97,87 %
25.12.2016 16:40 9,2 C 9,4 C 7,8 C 95 % 1 lf 1023,5 hPa 0,0 l/m 0 min 0 min 5 W/m 35,6 km/h (5 Bft) 91,49 %
25.12.2016 16:42 9,2 C 9,4 C 7,8 C 95 % 0 lf 1023,4 hPa 0,0 l/m 0 min 0 min 5 W/m 31,4 km/h (5 Bft) 95,74 %
25.12.2016 16:44 9,2 C 9,4 C 7,8 C 95 % 1 lf 1023,4 hPa 0,0 l/m 0 min 0 min 5 W/m 27,2 km/h (4 Bft) 93,62 %
25.12.2016 16:46 9,2 C 9,4 C 7,8 C 95 % 1 lf 1023,5 hPa 0,0 l/m 0 min 0 min 2 W/m 20,9 km/h (4 Bft) 91,30 %
25.12.2016 16:48 9,2 C 9,4 C 7,8 C 95 % 0 lf 1023,4 hPa 0,0 l/m 0 min 0 min 1 W/m 27,2 km/h (4 Bft) 91,49 %
25.12.2016 16:50 9,2 C 9,4 C 7,8 C 95 % 1 lf 1023,4 hPa 0,0 l/m 0 min 0 min 1 W/m 33,5 km/h (5 Bft) 95,74 %
25.12.2016 16:52 9,2 C 9,4 C 7,8 C 95 % 1 lf 1023,3 hPa 0,0 l/m 0 min 0 min 0 W/m 31,4 km/h (5 Bft) 89,36 %
25.12.2016 16:54 9,2 C 9,4 C 7,8 C 95 % 1 lf 1023,3 hPa 0,0 l/m 0 min 0 min 0 W/m 27,2 km/h (4 Bft) 93,62 %
25.12.2016 16:56 9,2 C 9,4 C 7,8 C 95 % 0 lf 1023,2 hPa 0,0 l/m 0 min 0 min 0 W/m 27,2 km/h (4 Bft) 95,74 %
25.12.2016 16:58 9,2 C 9,4 C 7,8 C 95 % 0 lf 1023,2 hPa 0,0 l/m 0 min 0 min 0 W/m 33,5 km/h (5 Bft) 95,65 %
25.12.2016 17:00 9,2 C 9,4 C 7,8 C 95 % 0 lf 1023,3 hPa 0,0 l/m 0 min 0 min 0 W/m 29,3 km/h (5 Bft) 93,62 %
25.12.2016 17:02 9,2 C 9,4 C 7,8 C 95 % 1 lf 1023,3 hPa 0,0 l/m 0 min 0 min 0 W/m 35,6 km/h (5 Bft) 93,62 %
25.12.2016 17:04 9,2 C 9,4 C 7,8 C 95 % 0 lf 1023,4 hPa 0,0 l/m 0 min 0 min 0 W/m 29,3 km/h (5 Bft) 93,62 %
25.12.2016 17:06 9,2 C 9,4 C 7,8 C 95 % 0 lf 1023,5 hPa 0,0 l/m 0 min 0 min 0 W/m 20,9 km/h (4 Bft) 95,74 %
25.12.2016 17:08 9,2 C 9,4 C 7,8 C 95 % 0 lf 1023,5 hPa 0,0 l/m 0 min 0 min 0 W/m 29,3 km/h (5 Bft) 93,48 %
25.12.2016 17:10 9,2 C 9,4 C 7,8 C 95 % 0 lf 1023,5 hPa 0,0 l/m 0 min 0 min 0 W/m 29,3 km/h (5 Bft) 93,62 %
25.12.2016 17:12 9,3 C 9,4 C 7,8 C 95 % 0 lf 1023,5 hPa 0,0 l/m 0 min 0 min 0 W/m 35,6 km/h (5 Bft) 95,74 %
25.12.2016 17:14 9,2 C 9,4 C 7,8 C 95 % 0 lf 1023,5 hPa 0,0 l/m 0 min 0 min 0 W/m 33,5 km/h (5 Bft) 97,87 %
25.12.2016 17:16 9,3 C 9,4 C 7,8 C 95 % 0 lf 1023,5 hPa 0,0 l/m 0 min 0 min 0 W/m 23,0 km/h (4 Bft) 93,62 %
25.12.2016 17:18 9,3 C 9,4 C 7,8 C 95 % 0 lf 1023,5 hPa 0,0 l/m 0 min 0 min 0 W/m 31,4 km/h (5 Bft) 97,87 %
25.12.2016 17:20 9,3 C 9,4 C 7,8 C 95 % 0 lf 1023,5 hPa 0,0 l/m 0 min 0 min 0 W/m 27,2 km/h (4 Bft) 93,48 %
25.12.2016 17:22 9,3 C 9,4 C 7,8 C 95 % 0 lf 1023,5 hPa 0,0 l/m 0 min 0 min 0 W/m 23,0 km/h (4 Bft) 95,74 %
25.12.2016 17:24 9,3 C 9,4 C 7,8 C 95 % 0 lf 1023,5 hPa 0,0 l/m 0 min 0 min 0 W/m 31,4 km/h (5 Bft) 100,00 %
25.12.2016 17:26 9,3 C 9,4 C 7,8 C 95 % 0 lf 1023,5 hPa 0,0 l/m 0 min 0 min 0 W/m 43,9 km/h (6 Bft) 100,00 %
25.12.2016 17:28 9,3 C 9,4 C 8,3 C 95 % 0 lf 1023,4 hPa 0,0 l/m 0 min 0 min 0 W/m 31,4 km/h (5 Bft) 97,87 %
25.12.2016 17:30 9,3 C 9,4 C 7,8 C 95 % 0 lf 1023,4 hPa 0,0 l/m 0 min 0 min 0 W/m 27,2 km/h (4 Bft) 100,00 %
25.12.2016 17:32 9,3 C 9,4 C 7,8 C 95 % 0 lf 1023,5 hPa 0,0 l/m 0 min 0 min 0 W/m 25,1 km/h (4 Bft) 100,00 %
25.12.2016 17:34 9,3 C 9,4 C 7,8 C 95 % 1 lf 1023,5 hPa 0,0 l/m 0 min 0 min 0 W/m 33,5 km/h (5 Bft) 97,87 %
25.12.2016 17:36 9,3 C 9,4 C 7,8 C 95 % 0 lf 1023,4 hPa 0,0 l/m 0 min 0 min 0 W/m 33,5 km/h (5 Bft) 95,74 %
25.12.2016 17:38 9,3 C 9,4 C 7,8 C 95 % 0 lf 1023,5 hPa 0,0 l/m 0 min 0 min 0 W/m 39,7 km/h (6 Bft) 97,87 %
25.12.2016 17:40 9,3 C 9,4 C 7,8 C 95 % 1 lf 1023,5 hPa 0,0 l/m 0 min 0 min 0 W/m 39,7 km/h (6 Bft) 100,00 %
25.12.2016 17:42 9,3 C 9,4 C 7,8 C 95 % 1 lf 1023,5 hPa 0,0 l/m 0 min 0 min 0 W/m 33,5 km/h (5 Bft) 100,00 %
25.12.2016 17:44 9,3 C 9,4 C 7,8 C 95 % 1 lf 1023,5 hPa 0,0 l/m 0 min 0 min 0 W/m 33,5 km/h (5 Bft) 100,00 %
25.12.2016 17:46 9,3 C 9,4 C 7,8 C 95 % 0 lf 1023,5 hPa 0,0 l/m 0 min 0 min 0 W/m 37,7 km/h (5 Bft) 100,00 %
25.12.2016 17:48 9,3 C 9,4 C 7,8 C 95 % 1 lf 1023,6 hPa 0,0 l/m 0 min 0 min 0 W/m 39,7 km/h (6 Bft) 95,74 %
25.12.2016 17:50 9,3 C 9,4 C 7,8 C 95 % 1 lf 1023,7 hPa 0,0 l/m 0 min 0 min 0 W/m 35,6 km/h (5 Bft) 97,87 %
25.12.2016 17:52 9,3 C 9,4 C 7,8 C 95 % 1 lf 1023,7 hPa 0,0 l/m 0 min 0 min 0 W/m 29,3 km/h (5 Bft) 97,87 %
25.12.2016 17:54 9,3 C 9,4 C 7,8 C 95 % 1 lf 1023,8 hPa 0,0 l/m 0 min 0 min 0 W/m 33,5 km/h (5 Bft) 100,00 %
25.12.2016 17:56 9,3 C 9,4 C 7,8 C 95 % 2 lf 1023,8 hPa 0,0 l/m 0 min 0 min 0 W/m 33,5 km/h (5 Bft) 97,83 %
25.12.2016 17:58 9,3 C 9,4 C 7,8 C 95 % 3 lf 1023,8 hPa 0,0 l/m 0 min 0 min 0 W/m 39,7 km/h (6 Bft) 97,87 %
25.12.2016 18:00 9,3 C 9,4 C 7,8 C 95 % 4 lf 1023,7 hPa 0,0 l/m 0 min 0 min 0 W/m 43,9 km/h (6 Bft) 97,87 %
25.12.2016 18:02 9,3 C 9,4 C 7,8 C 96 % 7 lf 1023,6 hPa 0,0 l/m 0 min 0 min 0 W/m 31,4 km/h (5 Bft) 95,74 %
25.12.2016 18:06 9,3 C 9,4 C 7,8 C 96 % 12 lf 1023,7 hPa 0,0 l/m 0 min 0 min 0 W/m 48,1 km/h (6 Bft) 98,94 %
25.12.2016 18:08 9,3 C 9,4 C 7,8 C 96 % 14 lf 1023,6 hPa 0,0 l/m 0 min 0 min 0 W/m 35,6 km/h (5 Bft) 97,83 %
25.12.2016 18:10 9,3 C 9,4 C 7,8 C 96 % 15 lf 1023,7 hPa 0,0 l/m 0 min 0 min 0 W/m 31,4 km/h (5 Bft) 97,87 %
25.12.2016 18:12 9,3 C 9,4 C 7,8 C 96 % 15 lf 1023,7 hPa 0,0 l/m 0 min 0 min 0 W/m 37,7 km/h (5 Bft) 100,00 %
25.12.2016 18:14 9,3 C 9,4 C 7,8 C 96 % 15 lf 1023,6 hPa 0,0 l/m 0 min 0 min 0 W/m 35,6 km/h (5 Bft) 100,00 %
25.12.2016 18:16 9,3 C 8,9 C 7,8 C 96 % 15 lf 1023,7 hPa 0,0 l/m 0 min 0 min 0 W/m 31,4 km/h (5 Bft) 97,87 %
25.12.2016 18:18 9,3 C 8,9 C 7,8 C 96 % 15 lf 1023,7 hPa 0,0 l/m 0 min 0 min 0 W/m 27,2 km/h (4 Bft) 100,00 %
25.12.2016 18:20 9,3 C 8,9 C 7,8 C 96 % 15 lf 1023,7 hPa 0,0 l/m 0 min 0 min 0 W/m 29,3 km/h (5 Bft) 91,30 %
25.12.2016 18:22 9,2 C 8,9 C 7,8 C 96 % 15 lf 1023,6 hPa 0,0 l/m 0 min 0 min 0 W/m 25,1 km/h (4 Bft) 97,87 %
25.12.2016 18:24 9,2 C 8,9 C 7,8 C 96 % 15 lf 1023,7 hPa 0,0 l/m 0 min 0 min 0 W/m 37,7 km/h (5 Bft) 97,87 %
25.12.2016 18:26 9,2 C 8,9 C 7,8 C 96 % 15 lf 1023,8 hPa 0,0 l/m 0 min 0 min 0 W/m 37,7 km/h (5 Bft) 100,00 %
25.12.2016 18:28 9,2 C 8,9 C 7,8 C 96 % 15 lf 1023,6 hPa 0,0 l/m 0 min 0 min 0 W/m 37,7 km/h (5 Bft) 97,87 %
25.12.2016 18:30 9,2 C 8,9 C 7,8 C 96 % 15 lf 1023,7 hPa 0,0 l/m 0 min 0 min 0 W/m 29,3 km/h (5 Bft) 100,00 %
25.12.2016 18:32 9,2 C 8,9 C 7,8 C 96 % 15 lf 1023,7 hPa 0,0 l/m 0 min 0 min 0 W/m 37,7 km/h (5 Bft) 95,74 %
25.12.2016 18:34 9,2 C 8,9 C 7,8 C 96 % 15 lf 1023,7 hPa 0,0 l/m 0 min 0 min 0 W/m 27,2 km/h (4 Bft) 97,87 %
25.12.2016 18:36 9,2 C 8,9 C 7,8 C 96 % 15 lf 1023,7 hPa 0,0 l/m 0 min 0 min 0 W/m 31,4 km/h (5 Bft) 95,74 %
25.12.2016 18:38 9,2 C 8,9 C 7,8 C 96 % 15 lf 1023,7 hPa 0,0 l/m 0 min 0 min 0 W/m 39,7 km/h (6 Bft) 95,74 %
25.12.2016 18:40 9,2 C 8,9 C 7,8 C 96 % 15 lf 1023,7 hPa 0,0 l/m 0 min 0 min 0 W/m 29,3 km/h (5 Bft) 93,62 %
25.12.2016 18:42 9,1 C 8,9 C 7,8 C 96 % 15 lf 1023,7 hPa 0,0 l/m 0 min 0 min 0 W/m 27,2 km/h (4 Bft) 91,30 %
25.12.2016 18:44 9,1 C 8,9 C 7,8 C 96 % 15 lf 1023,6 hPa 0,0 l/m 0 min 0 min 0 W/m 29,3 km/h (5 Bft) 93,62 %
25.12.2016 18:46 9,1 C 8,9 C 7,8 C 96 % 15 lf 1023,7 hPa 0,0 l/m 0 min 0 min 0 W/m 27,2 km/h (4 Bft) 93,62 %
25.12.2016 18:48 9,1 C 8,9 C 7,8 C 96 % 15 lf 1023,7 hPa 0,0 l/m 0 min 0 min 0 W/m 35,6 km/h (5 Bft) 91,49 %
25.12.2016 18:50 9,1 C 8,9 C 7,8 C 97 % 15 lf 1023,8 hPa 0,0 l/m 0 min 0 min 0 W/m 25,1 km/h (4 Bft) 91,49 %
25.12.2016 18:52 9,1 C 8,9 C 7,8 C 97 % 15 lf 1023,8 hPa 0,0 l/m 0 min 0 min 0 W/m 27,2 km/h (4 Bft) 91,49 %
25.12.2016 18:54 9,1 C 8,9 C 7,8 C 97 % 15 lf 1023,8 hPa 0,0 l/m 0 min 0 min 0 W/m 27,2 km/h (4 Bft) 93,48 %
25.12.2016 18:56 9,1 C 8,9 C 7,8 C 97 % 15 lf 1023,9 hPa 0,0 l/m 0 min 0 min 0 W/m 23,0 km/h (4 Bft) 93,62 %
25.12.2016 18:58 9,1 C 8,9 C 7,2 C 97 % 15 lf 1023,8 hPa 0,0 l/m 0 min 0 min 0 W/m 23,0 km/h (4 Bft) 93,62 %
25.12.2016 19:00 9,1 C 8,9 C 7,2 C 97 % 15 lf 1023,8 hPa 0,0 l/m 0 min 0 min 0 W/m 27,2 km/h (4 Bft) 87,23 %
25.12.2016 19:02 9,0 C 8,9 C 7,2 C 97 % 15 lf 1023,7 hPa 0,0 l/m 0 min 2 min 0 W/m 33,5 km/h (5 Bft) 93,62 %
25.12.2016 19:04 9,0 C 8,9 C 7,8 C 97 % 15 lf 1023,7 hPa 0,0 l/m 0 min 0 min 0 W/m 33,5 km/h (5 Bft) 93,62 %
25.12.2016 19:06 9,0 C 8,9 C 7,2 C 97 % 15 lf 1023,7 hPa 0,0 l/m 0 min 0 min 0 W/m 29,3 km/h (5 Bft) 91,30 %
25.12.2016 19:08 9,0 C 8,9 C 7,8 C 97 % 15 lf 1023,8 hPa 0,0 l/m 0 min 0 min 0 W/m 37,7 km/h (5 Bft) 95,74 %
25.12.2016 19:10 9,0 C 8,9 C 7,8 C 97 % 15 lf 1023,8 hPa 0,0 l/m 0 min 0 min 0 W/m 37,7 km/h (5 Bft) 91,49 %
25.12.2016 19:12 9,0 C 8,9 C 7,8 C 97 % 15 lf 1023,8 hPa 0,0 l/m 0 min 2 min 0 W/m 31,4 km/h (5 Bft) 93,62 %
25.12.2016 19:14 9,0 C 8,9 C 7,8 C 97 % 15 lf 1023,7 hPa 0,0 l/m 0 min 0 min 0 W/m 29,3 km/h (5 Bft) 95,74 %
25.12.2016 19:16 9,0 C 8,9 C 7,8 C 97 % 15 lf 1023,6 hPa 0,0 l/m 0 min 0 min 0 W/m 29,3 km/h (5 Bft) 93,62 %
25.12.2016 19:18 9,0 C 8,9 C 7,8 C 97 % 15 lf 1023,6 hPa 0,0 l/m 0 min 0 min 0 W/m 25,1 km/h (4 Bft) 93,48 %
25.12.2016 19:20 9,0 C 8,9 C 7,8 C 97 % 15 lf 1023,6 hPa 0,0 l/m 0 min 0 min 0 W/m 23,0 km/h (4 Bft) 91,49 %
25.12.2016 19:22 9,0 C 8,9 C 7,8 C 97 % 15 lf 1023,7 hPa 0,0 l/m 0 min 0 min 0 W/m 27,2 km/h (4 Bft) 93,62 %
25.12.2016 19:24 9,0 C 8,9 C 7,8 C 97 % 15 lf 1023,7 hPa 0,0 l/m 0 min 0 min 0 W/m 29,3 km/h (5 Bft) 93,62 %
25.12.2016 19:26 9,0 C 8,9 C 7,8 C 97 % 15 lf 1023,7 hPa 0,0 l/m 0 min 0 min 0 W/m 25,1 km/h (4 Bft) 91,49 %
25.12.2016 19:28 9,0 C 8,9 C 7,8 C 97 % 15 lf 1023,6 hPa 0,0 l/m 0 min 0 min 0 W/m 29,3 km/h (5 Bft) 89,36 %
25.12.2016 19:30 9,0 C 8,9 C 7,8 C 97 % 15 lf 1023,7 hPa 0,0 l/m 0 min 0 min 0 W/m 31,4 km/h (5 Bft) 93,48 %
25.12.2016 19:32 9,0 C 8,9 C 7,8 C 97 % 15 lf 1023,6 hPa 0,0 l/m 0 min 2 min 0 W/m 37,7 km/h (5 Bft) 93,62 %
25.12.2016 19:34 9,1 C 8,9 C 7,8 C 97 % 15 lf 1023,6 hPa 0,0 l/m 0 min 2 min 0 W/m 27,2 km/h (4 Bft) 95,74 %
25.12.2016 19:36 9,1 C 8,9 C 7,8 C 97 % 15 lf 1023,6 hPa 0,0 l/m 0 min 0 min 0 W/m 29,3 km/h (5 Bft) 95,74 %
25.12.2016 19:38 9,1 C 8,9 C 7,8 C 97 % 15 lf 1023,7 hPa 0,0 l/m 0 min 2 min 0 W/m 29,3 km/h (5 Bft) 91,49 %
25.12.2016 19:40 9,1 C 8,9 C 7,8 C 97 % 15 lf 1023,6 hPa 0,0 l/m 0 min 0 min 0 W/m 27,2 km/h (4 Bft) 95,65 %
25.12.2016 19:42 9,1 C 8,9 C 7,8 C 97 % 15 lf 1023,7 hPa 0,0 l/m 0 min 0 min 0 W/m 29,3 km/h (5 Bft) 95,74 %
25.12.2016 19:44 9,1 C 8,9 C 7,8 C 97 % 15 lf 1023,7 hPa 0,0 l/m 0 min 0 min 0 W/m 35,6 km/h (5 Bft) 93,62 %
25.12.2016 19:46 9,1 C 8,9 C 7,8 C 98 % 15 lf 1023,7 hPa 0,0 l/m 0 min 0 min 0 W/m 25,1 km/h (4 Bft) 95,74 %
25.12.2016 19:48 9,1 C 8,9 C 7,8 C 98 % 15 lf 1023,6 hPa 0,0 l/m 0 min 0 min 0 W/m 27,2 km/h (4 Bft) 97,87 %
25.12.2016 19:50 9,1 C 8,9 C 7,8 C 98 % 15 lf 1023,6 hPa 0,0 l/m 0 min 0 min 0 W/m 33,5 km/h (5 Bft) 95,74 %
25.12.2016 19:52 9,1 C 8,9 C 7,8 C 98 % 15 lf 1023,6 hPa 0,0 l/m 0 min 0 min 0 W/m 23,0 km/h (4 Bft) 95,65 %
25.12.2016 19:54 9,1 C 8,9 C 7,8 C 98 % 15 lf 1023,7 hPa 0,0 l/m 0 min 0 min 0 W/m 29,3 km/h (5 Bft) 97,87 %
25.12.2016 19:56 9,1 C 8,9 C 7,8 C 98 % 15 lf 1023,5 hPa 0,0 l/m 0 min 2 min 0 W/m 29,3 km/h (5 Bft) 95,74 %
25.12.2016 19:58 9,1 C 8,9 C 7,8 C 97 % 15 lf 1023,6 hPa 0,0 l/m 0 min 0 min 0 W/m 27,2 km/h (4 Bft) 95,74 %
25.12.2016 20:00 9,1 C 8,9 C 7,8 C 97 % 15 lf 1023,6 hPa 0,0 l/m 0 min 0 min 0 W/m 27,2 km/h (4 Bft) 95,74 %
25.12.2016 20:02 9,1 C 8,9 C 7,8 C 97 % 15 lf 1023,6 hPa 0,0 l/m 0 min 0 min 0 W/m 27,2 km/h (4 Bft) 91,49 %
25.12.2016 20:04 9,1 C 8,9 C 7,8 C 97 % 15 lf 1023,6 hPa 0,0 l/m 0 min 0 min 0 W/m 25,1 km/h (4 Bft) 100,00 %
25.12.2016 20:06 9,1 C 8,9 C 7,8 C 97 % 15 lf 1023,7 hPa 0,0 l/m 0 min 0 min 0 W/m 23,0 km/h (4 Bft) 100,00 %
25.12.2016 20:08 9,1 C 8,9 C 7,8 C 97 % 15 lf 1023,7 hPa 0,0 l/m 0 min 0 min 0 W/m 43,9 km/h (6 Bft) 100,00 %
25.12.2016 20:10 9,1 C 8,9 C 7,8 C 97 % 15 lf 1023,7 hPa 0,0 l/m 0 min 0 min 0 W/m 27,2 km/h (4 Bft) 95,74 %
25.12.2016 20:12 9,1 C 8,9 C 7,8 C 98 % 15 lf 1023,7 hPa 0,0 l/m 0 min 0 min 0 W/m 29,3 km/h (5 Bft) 100,00 %
25.12.2016 20:14 9,1 C 8,9 C 7,8 C 98 % 15 lf 1023,5 hPa 0,0 l/m 0 min 0 min 0 W/m 20,9 km/h (4 Bft) 97,87 %
25.12.2016 20:16 9,1 C 8,9 C 7,8 C 98 % 15 lf 1023,5 hPa 0,0 l/m 0 min 0 min 0 W/m 25,1 km/h (4 Bft) 97,83 %
25.12.2016 20:18 9,1 C 8,9 C 7,8 C 98 % 15 lf 1023,5 hPa 0,0 l/m 0 min 0 min 0 W/m 27,2 km/h (4 Bft) 97,87 %
25.12.2016 20:20 9,2 C 8,9 C 7,8 C 98 % 15 lf 1023,5 hPa 0,0 l/m 0 min 0 min 0 W/m 37,7 km/h (5 Bft) 95,74 %
25.12.2016 20:22 9,2 C 8,9 C 7,8 C 98 % 15 lf 1023,5 hPa 0,0 l/m 0 min 2 min 0 W/m 29,3 km/h (5 Bft) 97,87 %
25.12.2016 20:24 9,2 C 8,9 C 7,8 C 98 % 15 lf 1023,6 hPa 0,0 l/m 0 min 2 min 0 W/m 33,5 km/h (5 Bft) 100,00 %
25.12.2016 20:26 9,2 C 8,9 C 7,8 C 98 % 15 lf 1023,6 hPa 0,0 l/m 0 min 0 min 0 W/m 29,3 km/h (5 Bft) 97,87 %
25.12.2016 20:28 9,2 C 8,9 C 7,8 C 98 % 15 lf 1023,6 hPa 0,0 l/m 0 min 0 min 0 W/m 25,1 km/h (4 Bft) 97,83 %
25.12.2016 20:30 9,2 C 8,9 C 7,8 C 98 % 15 lf 1023,6 hPa 0,0 l/m 0 min 0 min 0 W/m 31,4 km/h (5 Bft) 97,87 %
25.12.2016 20:32 9,2 C 8,9 C 7,8 C 98 % 15 lf 1023,5 hPa 0,0 l/m 0 min 0 min 0 W/m 29,3 km/h (5 Bft) 95,74 %
25.12.2016 20:34 9,2 C 8,9 C 7,8 C 98 % 15 lf 1023,5 hPa 0,0 l/m 0 min 2 min 0 W/m 35,6 km/h (5 Bft) 95,74 %
25.12.2016 20:36 9,2 C 9,4 C 7,8 C 98 % 15 lf 1023,6 hPa 0,0 l/m 0 min 2 min 0 W/m 29,3 km/h (5 Bft) 97,87 %
25.12.2016 20:38 9,2 C 9,4 C 7,8 C 98 % 15 lf 1023,7 hPa 0,0 l/m 0 min 2 min 0 W/m 27,2 km/h (4 Bft) 93,62 %
25.12.2016 20:40 9,2 C 9,4 C 7,8 C 98 % 15 lf 1023,6 hPa 0,0 l/m 0 min 2 min 2 W/m 31,4 km/h (5 Bft) 95,65 %
25.12.2016 20:42 9,3 C 9,4 C 7,8 C 98 % 15 lf 1023,7 hPa 0,0 l/m 0 min 2 min 0 W/m 39,7 km/h (6 Bft) 97,87 %
25.12.2016 20:44 9,3 C 9,4 C 7,8 C 98 % 15 lf 1023,7 hPa 0,0 l/m 0 min 2 min 0 W/m 29,3 km/h (5 Bft) 97,87 %
25.12.2016 20:46 9,3 C 9,4 C 7,8 C 98 % 15 lf 1023,8 hPa 0,0 l/m 0 min 0 min 0 W/m 35,6 km/h (5 Bft) 97,87 %
25.12.2016 20:48 9,3 C 9,4 C 7,8 C 98 % 15 lf 1023,8 hPa 0,0 l/m 0 min 0 min 0 W/m 29,3 km/h (5 Bft) 97,87 %
25.12.2016 20:50 9,3 C 9,4 C 7,8 C 98 % 15 lf 1023,8 hPa 0,0 l/m 0 min 0 min 0 W/m 25,1 km/h (4 Bft) 95,65 %
25.12.2016 20:52 9,3 C 9,4 C 7,8 C 98 % 15 lf 1023,8 hPa 0,0 l/m 0 min 0 min 0 W/m 33,5 km/h (5 Bft) 97,87 %
25.12.2016 20:54 9,3 C 9,4 C 7,8 C 98 % 15 lf 1023,7 hPa 0,0 l/m 0 min 2 min 0 W/m 25,1 km/h (4 Bft) 95,74 %
25.12.2016 20:56 9,3 C 9,4 C 7,8 C 98 % 15 lf 1023,7 hPa 0,0 l/m 0 min 0 min 0 W/m 27,2 km/h (4 Bft) 97,87 %
25.12.2016 20:58 9,3 C 9,4 C 7,8 C 98 % 15 lf 1023,7 hPa 0,0 l/m 0 min 0 min 0 W/m 29,3 km/h (5 Bft) 97,87 %
25.12.2016 21:00 9,3 C 9,4 C 7,8 C 98 % 15 lf 1023,6 hPa 0,0 l/m 0 min 0 min 0 W/m 20,9 km/h (4 Bft) 100,00 %
25.12.2016 21:02 9,3 C 9,4 C 7,8 C 98 % 15 lf 1023,6 hPa 0,0 l/m 0 min 0 min 0 W/m 29,3 km/h (5 Bft) 97,83 %
25.12.2016 21:04 9,3 C 9,4 C 7,8 C 98 % 15 lf 1023,5 hPa 0,0 l/m 0 min 0 min 0 W/m 31,4 km/h (5 Bft) 100,00 %
25.12.2016 21:06 9,3 C 9,4 C 7,8 C 98 % 15 lf 1023,5 hPa 0,0 l/m 0 min 0 min 0 W/m 33,5 km/h (5 Bft) 97,87 %
25.12.2016 21:08 9,3 C 9,4 C 7,8 C 98 % 15 lf 1023,5 hPa 0,0 l/m 0 min 0 min 0 W/m 25,1 km/h (4 Bft) 97,87 %
25.12.2016 21:10 9,3 C 9,4 C 7,8 C 98 % 15 lf 1023,5 hPa 0,0 l/m 0 min 0 min 0 W/m 25,1 km/h (4 Bft) 100,00 %
25.12.2016 21:12 9,3 C 9,4 C 7,8 C 98 % 15 lf 1023,6 hPa 0,0 l/m 0 min 2 min 0 W/m 33,5 km/h (5 Bft) 93,62 %
25.12.2016 21:14 9,3 C 9,4 C 7,8 C 98 % 15 lf 1023,5 hPa 0,0 l/m 0 min 0 min 0 W/m 20,9 km/h (4 Bft) 100,00 %
25.12.2016 21:16 9,3 C 9,4 C 7,8 C 98 % 15 lf 1023,6 hPa 0,0 l/m 0 min 2 min 0 W/m 33,5 km/h (5 Bft) 95,74 %
25.12.2016 21:18 9,3 C 9,4 C 7,8 C 98 % 15 lf 1023,6 hPa 0,0 l/m 0 min 2 min 0 W/m 23,0 km/h (4 Bft) 100,00 %
25.12.2016 21:20 9,4 C 9,4 C 7,8 C 98 % 15 lf 1023,6 hPa 0,0 l/m 0 min 0 min 0 W/m 35,6 km/h (5 Bft) 100,00 %
25.12.2016 21:22 9,4 C 9,4 C 7,8 C 98 % 15 lf 1023,6 hPa 0,0 l/m 0 min 0 min 0 W/m 37,7 km/h (5 Bft) 100,00 %
25.12.2016 21:24 9,4 C 9,4 C 7,8 C 98 % 15 lf 1023,6 hPa 0,0 l/m 0 min 2 min 0 W/m 37,7 km/h (5 Bft) 97,87 %
25.12.2016 21:26 9,4 C 9,4 C 7,8 C 98 % 15 lf 1023,5 hPa 0,0 l/m 0 min 2 min 0 W/m 25,1 km/h (4 Bft) 100,00 %
25.12.2016 21:28 9,4 C 9,4 C 7,8 C 98 % 15 lf 1023,6 hPa 0,0 l/m 0 min 0 min 0 W/m 33,5 km/h (5 Bft) 93,62 %
25.12.2016 21:30 9,4 C 9,4 C 7,8 C 98 % 15 lf 1023,6 hPa 0,0 l/m 0 min 0 min 0 W/m 31,4 km/h (5 Bft) 100,00 %
25.12.2016 21:32 9,4 C 9,4 C 7,8 C 98 % 15 lf 1023,6 hPa 0,0 l/m 0 min 2 min 0 W/m 31,4 km/h (5 Bft) 97,87 %
25.12.2016 21:34 9,4 C 9,4 C 7,8 C 98 % 15 lf 1023,6 hPa 0,0 l/m 0 min 2 min 0 W/m 23,0 km/h (4 Bft) 95,74 %
25.12.2016 21:36 9,4 C 9,4 C 7,8 C 98 % 15 lf 1023,7 hPa 0,0 l/m 0 min 0 min 0 W/m 27,2 km/h (4 Bft) 93,62 %
25.12.2016 21:38 9,4 C 9,4 C 7,8 C 98 % 15 lf 1023,6 hPa 0,0 l/m 0 min 0 min 0 W/m 27,2 km/h (4 Bft) 95,65 %
25.12.2016 21:40 9,4 C 9,4 C 7,8 C 98 % 15 lf 1023,7 hPa 0,0 l/m 0 min 0 min 0 W/m 23,0 km/h (4 Bft) 95,74 %
25.12.2016 21:42 9,4 C 9,4 C 7,8 C 98 % 15 lf 1023,6 hPa 0,0 l/m 0 min 2 min 0 W/m 33,5 km/h (5 Bft) 97,87 %
25.12.2016 21:44 9,4 C 9,4 C 7,8 C 98 % 15 lf 1023,6 hPa 0,0 l/m 0 min 0 min 2 W/m 27,2 km/h (4 Bft) 97,87 %
25.12.2016 21:46 9,4 C 9,4 C 7,8 C 98 % 15 lf 1023,6 hPa 0,0 l/m 0 min 0 min 0 W/m 29,3 km/h (5 Bft) 95,74 %
25.12.2016 21:48 9,4 C 9,4 C 7,8 C 98 % 15 lf 1023,6 hPa 0,0 l/m 0 min 2 min 0 W/m 25,1 km/h (4 Bft) 95,74 %
25.12.2016 21:50 9,4 C 9,4 C 7,8 C 98 % 15 lf 1023,6 hPa 0,0 l/m 0 min 2 min 0 W/m 27,2 km/h (4 Bft) 95,65 %
25.12.2016 21:52 9,4 C 9,4 C 7,8 C 98 % 15 lf 1023,6 hPa 0,0 l/m 0 min 2 min 0 W/m 27,2 km/h (4 Bft) 97,87 %
25.12.2016 21:54 9,4 C 9,4 C 7,8 C 98 % 15 lf 1023,6 hPa 0,0 l/m 0 min 2 min 0 W/m 20,9 km/h (4 Bft) 95,74 %
25.12.2016 21:56 9,4 C 9,4 C 7,8 C 98 % 15 lf 1023,6 hPa 0,2 l/m 0 min 2 min 0 W/m 33,5 km/h (5 Bft) 93,62 %
25.12.2016 21:58 9,4 C 9,4 C 7,8 C 98 % 15 lf 1023,7 hPa 0,0 l/m 0 min 2 min 0 W/m 20,9 km/h (4 Bft) 95,74 %
25.12.2016 22:00 9,4 C 9,4 C 7,8 C 98 % 15 lf 1023,8 hPa 0,0 l/m 0 min 0 min 0 W/m 27,2 km/h (4 Bft) 95,74 %
25.12.2016 22:02 9,4 C 9,4 C 7,8 C 98 % 15 lf 1023,8 hPa 0,0 l/m 0 min 0 min 0 W/m 18,8 km/h (3 Bft) 91,30 %
25.12.2016 22:04 9,4 C 9,4 C 7,8 C 98 % 15 lf 1023,8 hPa 0,0 l/m 0 min 0 min 2 W/m 18,8 km/h (3 Bft) 91,49 %
25.12.2016 22:06 9,4 C 9,4 C 7,8 C 98 % 15 lf 1023,8 hPa 0,0 l/m 0 min 2 min 0 W/m 27,2 km/h (4 Bft) 95,74 %
25.12.2016 22:08 9,4 C 9,4 C 7,8 C 98 % 15 lf 1023,8 hPa 0,0 l/m 0 min 2 min 0 W/m 29,3 km/h (5 Bft) 91,49 %
25.12.2016 22:10 9,4 C 9,4 C 7,8 C 98 % 15 lf 1023,7 hPa 0,0 l/m 0 min 2 min 0 W/m 29,3 km/h (5 Bft) 95,74 %
25.12.2016 22:12 9,4 C 9,4 C 7,8 C 98 % 15 lf 1023,7 hPa 0,0 l/m 0 min 2 min 0 W/m 23,0 km/h (4 Bft) 95,65 %
25.12.2016 22:14 9,4 C 9,4 C 7,8 C 98 % 15 lf 1023,8 hPa 0,0 l/m 0 min 0 min 0 W/m 27,2 km/h (4 Bft) 97,87 %
25.12.2016 22:16 9,4 C 9,4 C 7,8 C 98 % 15 lf 1023,7 hPa 0,0 l/m 0 min 2 min 0 W/m 25,1 km/h (4 Bft) 93,62 %
25.12.2016 22:18 9,4 C 9,4 C 7,8 C 98 % 15 lf 1023,7 hPa 0,0 l/m 0 min 0 min 0 W/m 27,2 km/h (4 Bft) 93,62 %
25.12.2016 22:20 9,4 C 9,4 C 7,8 C 98 % 15 lf 1023,6 hPa 0,0 l/m 0 min 0 min 0 W/m 20,9 km/h (4 Bft) 91,49 %
25.12.2016 22:22 9,4 C 9,4 C 7,8 C 98 % 15 lf 1023,7 hPa 0,0 l/m 0 min 2 min 0 W/m 23,0 km/h (4 Bft) 89,36 %
25.12.2016 22:24 9,4 C 9,4 C 7,8 C 98 % 15 lf 1023,7 hPa 0,0 l/m 0 min 2 min 0 W/m 27,2 km/h (4 Bft) 93,48 %
25.12.2016 22:26 9,4 C 9,4 C 7,8 C 98 % 15 lf 1023,7 hPa 0,0 l/m 0 min 0 min 0 W/m 20,9 km/h (4 Bft) 95,74 %
25.12.2016 22:28 9,4 C 9,4 C 7,8 C 98 % 15 lf 1023,7 hPa 0,0 l/m 0 min 2 min 0 W/m 31,4 km/h (5 Bft) 93,62 %
25.12.2016 22:30 9,4 C 9,4 C 7,8 C 98 % 15 lf 1023,8 hPa 0,0 l/m 0 min 2 min 0 W/m 29,3 km/h (5 Bft) 93,62 %
25.12.2016 22:32 9,4 C 9,4 C 7,8 C 98 % 15 lf 1023,8 hPa 0,0 l/m 0 min 2 min 0 W/m 25,1 km/h (4 Bft) 95,74 %
25.12.2016 22:34 9,4 C 9,4 C 7,8 C 98 % 15 lf 1023,7 hPa 0,0 l/m 0 min 2 min 0 W/m 35,6 km/h (5 Bft) 93,62 %
25.12.2016 22:36 9,4 C 9,4 C 7,8 C 98 % 15 lf 1023,7 hPa 0,0 l/m 0 min 2 min 0 W/m 33,5 km/h (5 Bft) 93,48 %
25.12.2016 22:38 9,4 C 9,4 C 7,8 C 98 % 15 lf 1023,7 hPa 0,0 l/m 0 min 2 min 0 W/m 23,0 km/h (4 Bft) 89,36 %
25.12.2016 22:40 9,4 C 9,4 C 7,8 C 98 % 15 lf 1023,8 hPa 0,0 l/m 0 min 0 min 0 W/m 20,9 km/h (4 Bft) 95,74 %
25.12.2016 22:42 9,4 C 9,4 C 7,8 C 98 % 15 lf 1023,7 hPa 0,0 l/m 0 min 0 min 0 W/m 23,0 km/h (4 Bft) 93,62 %
25.12.2016 22:44 9,4 C 9,4 C 7,8 C 98 % 15 lf 1023,7 hPa 0,0 l/m 0 min 0 min 0 W/m 20,9 km/h (4 Bft) 93,62 %
25.12.2016 22:46 9,4 C 9,4 C 7,8 C 98 % 15 lf 1023,8 hPa 0,0 l/m 0 min 2 min 0 W/m 23,0 km/h (4 Bft) 93,62 %
25.12.2016 22:48 9,4 C 9,4 C 7,8 C 98 % 15 lf 1023,8 hPa 0,0 l/m 0 min 2 min 0 W/m 18,8 km/h (3 Bft) 95,65 %
25.12.2016 22:50 9,4 C 9,4 C 7,8 C 98 % 15 lf 1023,8 hPa 0,0 l/m 0 min 2 min 0 W/m 20,9 km/h (4 Bft) 95,74 %
25.12.2016 22:52 9,4 C 9,4 C 7,8 C 98 % 15 lf 1023,8 hPa 0,0 l/m 0 min 0 min 0 W/m 31,4 km/h (5 Bft) 89,36 %
25.12.2016 22:54 9,4 C 9,4 C 7,8 C 98 % 15 lf 1023,7 hPa 0,0 l/m 0 min 2 min 0 W/m 20,9 km/h (4 Bft) 97,87 %
25.12.2016 22:56 9,4 C 9,4 C 7,8 C 98 % 15 lf 1023,7 hPa 0,0 l/m 0 min 0 min 2 W/m 20,9 km/h (4 Bft) 97,87 %
25.12.2016 22:58 9,4 C 9,4 C 7,8 C 98 % 15 lf 1023,8 hPa 0,0 l/m 0 min 0 min 0 W/m 25,1 km/h (4 Bft) 95,74 %
25.12.2016 23:00 9,5 C 9,4 C 7,8 C 98 % 15 lf 1023,9 hPa 0,0 l/m 0 min 0 min 0 W/m 27,2 km/h (4 Bft) 95,65 %
25.12.2016 23:02 9,5 C 9,4 C 7,8 C 98 % 15 lf 1023,9 hPa 0,0 l/m 0 min 2 min 2 W/m 31,4 km/h (5 Bft) 95,74 %
25.12.2016 23:04 9,5 C 9,4 C 7,8 C 98 % 15 lf 1023,9 hPa 0,0 l/m 0 min 2 min 0 W/m 16,7 km/h (3 Bft) 95,74 %
25.12.2016 23:06 9,5 C 9,4 C 7,8 C 98 % 15 lf 1023,9 hPa 0,0 l/m 0 min 0 min 2 W/m 27,2 km/h (4 Bft) 95,74 %
25.12.2016 23:08 9,6 C 9,4 C 7,8 C 98 % 15 lf 1023,9 hPa 0,0 l/m 0 min 0 min 2 W/m 29,3 km/h (5 Bft) 91,49 %
25.12.2016 23:10 9,6 C 9,4 C 8,3 C 98 % 15 lf 1023,9 hPa 0,0 l/m 0 min 2 min 0 W/m 25,1 km/h (4 Bft) 93,62 %
25.12.2016 23:12 9,6 C 9,4 C 7,8 C 98 % 15 lf 1023,9 hPa 0,0 l/m 0 min 2 min 0 W/m 23,0 km/h (4 Bft) 95,65 %
25.12.2016 23:14 9,6 C 9,4 C 7,8 C 98 % 15 lf 1023,9 hPa 0,0 l/m 0 min 0 min 3 W/m 16,7 km/h (3 Bft) 93,62 %
25.12.2016 23:16 9,6 C 9,4 C 7,8 C 98 % 15 lf 1023,9 hPa 0,0 l/m 0 min 0 min 1 W/m 16,7 km/h (3 Bft) 95,74 %
25.12.2016 23:18 9,6 C 9,4 C 7,8 C 98 % 15 lf 1023,9 hPa 0,0 l/m 0 min 0 min 2 W/m 18,8 km/h (3 Bft) 95,74 %
25.12.2016 23:20 9,6 C 9,4 C 7,8 C 98 % 15 lf 1023,9 hPa 0,0 l/m 0 min 0 min 0 W/m 20,9 km/h (4 Bft) 97,87 %
25.12.2016 23:22 9,6 C 9,4 C 7,8 C 98 % 15 lf 1023,9 hPa 0,0 l/m 0 min 0 min 2 W/m 18,8 km/h (3 Bft) 97,83 %
25.12.2016 23:24 9,6 C 9,4 C 7,8 C 98 % 15 lf 1023,9 hPa 0,0 l/m 0 min 0 min 0 W/m 20,9 km/h (4 Bft) 97,87 %
25.12.2016 23:26 9,6 C 9,4 C 8,3 C 98 % 15 lf 1023,9 hPa 0,0 l/m 0 min 2 min 0 W/m 43,9 km/h (6 Bft) 97,87 %
25.12.2016 23:28 9,6 C 9,4 C 8,3 C 98 % 15 lf 1024,0 hPa 0,0 l/m 0 min 2 min 2 W/m 25,1 km/h (4 Bft) 95,74 %
25.12.2016 23:30 9,6 C 9,4 C 8,3 C 98 % 15 lf 1023,9 hPa 0,0 l/m 0 min 2 min 0 W/m 20,9 km/h (4 Bft) 95,74 %
25.12.2016 23:32 9,6 C 9,4 C 8,3 C 98 % 15 lf 1023,9 hPa 0,0 l/m 0 min 2 min 1 W/m 27,2 km/h (4 Bft) 93,62 %
25.12.2016 23:34 9,7 C 9,4 C 8,3 C 98 % 15 lf 1023,9 hPa 0,0 l/m 0 min 2 min 3 W/m 25,1 km/h (4 Bft) 91,49 %
25.12.2016 23:36 9,7 C 9,4 C 8,3 C 98 % 15 lf 1023,9 hPa 0,0 l/m 0 min 2 min 2 W/m 20,9 km/h (4 Bft) 95,65 %
25.12.2016 23:38 9,7 C 9,4 C 8,3 C 98 % 15 lf 1023,8 hPa 0,0 l/m 0 min 0 min 0 W/m 20,9 km/h (4 Bft) 97,87 %
25.12.2016 23:40 9,7 C 9,4 C 8,3 C 98 % 15 lf 1023,9 hPa 0,0 l/m 0 min 0 min 2 W/m 23,0 km/h (4 Bft) 97,87 %
25.12.2016 23:42 9,7 C 9,4 C 8,3 C 98 % 15 lf 1023,9 hPa 0,0 l/m 0 min 2 min 0 W/m 27,2 km/h (4 Bft) 95,74 %
25.12.2016 23:44 9,7 C 9,4 C 8,3 C 98 % 15 lf 1023,9 hPa 0,0 l/m 0 min 0 min 0 W/m 20,9 km/h (4 Bft) 97,87 %
25.12.2016 23:46 9,7 C 9,4 C 8,3 C 98 % 15 lf 1023,9 hPa 0,0 l/m 0 min 2 min 0 W/m 27,2 km/h (4 Bft) 95,65 %
25.12.2016 23:48 9,7 C 9,4 C 8,3 C 98 % 15 lf 1023,9 hPa 0,0 l/m 0 min 2 min 1 W/m 25,1 km/h (4 Bft) 97,87 %
25.12.2016 23:50 9,7 C 9,4 C 8,3 C 98 % 15 lf 1023,9 hPa 0,0 l/m 0 min 0 min 1 W/m 23,0 km/h (4 Bft) 100,00 %
25.12.2016 23:52 9,7 C 9,4 C 8,3 C 98 % 15 lf 1023,9 hPa 0,0 l/m 0 min 2 min 0 W/m 27,2 km/h (4 Bft) 100,00 %
25.12.2016 23:54 9,7 C 9,4 C 8,3 C 98 % 15 lf 1023,8 hPa 0,0 l/m 0 min 2 min 3 W/m 27,2 km/h (4 Bft) 93,62 %
25.12.2016 23:56 9,7 C 9,4 C 8,3 C 98 % 15 lf 1023,9 hPa 0,0 l/m 0 min 2 min 1 W/m 27,2 km/h (4 Bft) 97,87 %
25.12.2016 23:58 9,7 C 9,4 C 8,3 C 98 % 15 lf 1023,8 hPa 0,0 l/m 0 min 2 min 0 W/m 27,2 km/h (4 Bft) 97,83 %
_ Min-Zeit 01:36 00:40 00:00 00:00 03:44 07:36 - - - - 00:50 07:02
Minimum _ 7,6 C 7,2 C 5,6 C 88 % 0 lf 1022,4 hPa - - - - 14,6 km/h (3 Bft) 85,11 %
_ Max-Zeit 23:34 12:44 11:58 19:46 00:00 00:00 00:20 00:00 00:00 12:44 15:20 00:26
Maximum _ 9,7 C 10,0 C 8,3 C 98 % 15 lf 1025,1 hPa 0,2 l/m 0 min 2 min 69 W/m 54,4 km/h
W-SW (7 Bft)
100,00 %
Durchschnitt _ 8,8 C 8,7 C 7,2 C 94 % 7 lf 1023,5 hPa #1,4 l/m #0 min. #6:02 h 23 W/m 31,4 km/h (5 Bft) 95,93 %
© 2016 W. Hausmann